Latitude: N 50° 09' 49" Longitude: W 05° 11' 53" Elevation: 168m ASL

There are 20 visitors online

Adverts

<- Previous Day | Today | Next Day ->

All Data for 20 June 2019

Time
A - D
Temp
A - D
Dew Point
A - D
Humidity
A - D
Pressure
A - D
Wind
A - D
Wind Dir Gust
A - D
Rain Rate
A - D
Rain Total
00:00 11.0 7.3 78 1013.7 3.8 S 5.4 0.0 0.0
00:01 11.0 7.3 78 1013.7 3.8 S 5.4 0.0 0.0
00:02 11.0 7.3 78 1013.6 3.8 S 5.4 0.0 0.0
00:03 11.0 7.3 78 1013.6 3.8 S 5.4 0.0 0.0
00:04 11.0 7.3 78 1013.8 3.8 S 5.4 0.0 0.0
00:05 11.0 7.3 78 1013.6 3.8 S 4.5 0.0 0.0
00:06 10.9 7.4 79 1013.7 4.5 W 4.5 0.0 0.0
00:07 10.9 7.4 79 1013.6 5.4 W 5.4 0.0 0.0
00:09 10.9 7.4 79 1013.7 3.8 SW 5.4 0.0 0.0
00:10 10.9 7.4 79 1013.8 4.5 SW 5.4 0.0 0.0
00:11 10.9 7.4 79 1013.8 3.1 W 5.4 0.0 0.0
00:12 10.9 7.4 79 1013.9 4.5 NW 5.4 0.0 0.0
00:13 10.9 7.4 79 1013.7 6.0 SW 6.0 0.0 0.0
00:14 10.9 7.4 79 1013.9 4.5 W 6.0 0.0 0.0
00:15 10.9 7.4 79 1013.9 5.4 W 6.0 0.0 0.0
00:16 10.9 7.4 79 1013.9 5.4 SW 6.0 0.0 0.0
00:17 10.9 7.4 79 1013.8 3.8 SW 6.0 0.0 0.0
00:18 10.9 7.4 79 1013.8 4.5 N 6.0 0.0 0.0
00:19 10.9 7.4 79 1014.0 5.4 S 6.0 0.0 0.0
00:20 10.9 7.4 79 1013.8 4.5 SW 6.0 0.0 0.0
00:21 10.9 7.4 79 1013.8 4.5 SW 6.0 0.0 0.0
00:22 10.9 7.4 79 1013.9 4.5 SW 6.0 0.0 0.0
00:23 10.9 7.4 79 1013.9 4.5 W 6.0 0.0 0.0
00:24 10.9 7.4 79 1013.9 3.1 W 5.4 0.0 0.0
00:25 10.8 7.3 79 1013.9 3.8 WSW 5.4 0.0 0.0
00:26 10.8 7.3 79 1013.9 3.1 W 5.4 0.0 0.0
00:28 10.8 7.3 79 1013.9 3.8 NW 5.4 0.0 0.0
00:29 10.8 7.3 79 1013.9 3.8 SW 5.4 0.0 0.0
00:30 10.8 7.3 79 1013.9 3.8 SW 4.5 0.0 0.0
00:31 10.8 7.3 79 1013.8 4.5 W 4.5 0.0 0.0
00:32 10.8 7.3 79 1013.8 4.5 SW 4.5 0.0 0.0
00:33 10.8 7.3 79 1013.9 5.4 W 5.4 0.0 0.0
00:34 10.7 7.2 79 1013.8 3.8 W 5.4 0.0 0.0
00:35 10.7 7.2 79 1013.8 3.1 W 5.4 0.0 0.0
00:36 10.7 7.2 79 1013.9 2.2 W 5.4 0.0 0.0
00:37 10.7 7.2 79 1013.8 4.5 W 5.4 0.0 0.0
00:38 10.7 7.2 79 1013.9 3.1 W 5.4 0.0 0.0
00:39 10.7 7.4 80 1014.0 3.1 SW 5.4 0.0 0.0
00:40 10.7 7.2 79 1014.0 3.1 W 5.4 0.0 0.0
00:41 10.7 7.4 80 1013.9 4.5 WSW 5.4 0.0 0.0
00:42 10.7 7.4 80 1013.9 4.5 SW 5.4 0.0 0.0
00:43 10.7 7.4 80 1014.0 3.1 SW 5.4 0.0 0.0
00:44 10.7 7.4 80 1014.0 4.5 SW 4.5 0.0 0.0
00:45 10.7 7.4 80 1013.9 3.1 SW 4.5 0.0 0.0
00:47 10.6 7.3 80 1013.9 3.1 WSW 4.5 0.0 0.0
00:48 10.6 7.3 80 1014.0 3.1 WSW 4.5 0.0 0.0
00:49 10.6 7.3 80 1013.8 5.4 SW 5.4 0.0 0.0
00:50 10.6 7.3 80 1013.8 6.0 SW 6.0 0.0 0.0
00:51 10.6 7.3 80 1013.9 3.1 SW 6.0 0.0 0.0
00:52 10.6 7.3 80 1013.9 3.8 SW 6.0 0.0 0.0
00:53 10.6 7.3 80 1014.0 2.2 SW 6.0 0.0 0.0
00:54 10.6 7.3 80 1013.8 3.1 W 6.0 0.0 0.0
00:55 10.6 7.3 80 1013.9 4.5 W 6.0 0.0 0.0
00:56 10.6 7.3 80 1013.8 3.1 WSW 6.0 0.0 0.0
00:57 10.6 7.3 80 1013.8 2.2 SW 6.0 0.0 0.0
00:58 10.6 7.3 80 1013.8 2.2 SW 6.0 0.0 0.0
00:59 10.7 7.4 80 1013.9 3.1 SW 6.0 0.0 0.0
01:00 10.7 7.4 80 1013.8 3.8 S 6.0 0.0 0.0
01:01 10.7 7.4 80 1014.0 3.8 S 4.5 0.0 0.0
01:02 10.7 7.4 80 1013.9 3.8 S 4.5 0.0 0.0
01:03 10.7 7.4 80 1013.8 3.8 S 4.5 0.0 0.0
01:04 10.7 7.4 80 1013.9 3.8 S 4.5 0.0 0.0
01:05 10.7 7.4 80 1013.9 3.8 S 4.5 0.0 0.0
01:06 10.7 7.4 80 1013.8 2.2 SW 3.8 0.0 0.0
01:07 10.7 7.6 81 1013.7 1.6 SW 3.8 0.0 0.0
01:08 10.7 7.4 80 1013.8 1.6 SW 3.8 0.0 0.0
01:10 10.7 7.6 81 1013.9 1.6 SW 3.8 0.0 0.0
01:11 10.7 7.6 81 1013.7 0.7 SW 3.8 0.0 0.0
01:12 10.7 7.6 81 1013.9 0.0 SW 3.8 0.0 0.0
01:13 10.7 7.6 81 1013.9 2.2 W 3.8 0.0 0.0
01:14 10.7 7.6 81 1013.9 2.2 SW 3.8 0.0 0.0
01:15 10.7 7.6 81 1013.9 0.7 SW 2.2 0.0 0.0
01:16 10.7 7.6 81 1013.9 2.2 W 2.2 0.0 0.0
01:17 10.7 7.6 81 1013.8 3.1 S 3.1 0.0 0.0
01:18 10.7 7.6 81 1013.8 3.1 WSW 3.1 0.0 0.0
01:19 10.7 7.6 81 1013.9 3.1 SW 3.1 0.0 0.0
01:20 10.7 7.6 81 1014.0 3.1 SW 3.1 0.0 0.0
01:21 10.7 7.6 81 1013.8 2.2 SW 3.1 0.0 0.0
01:22 10.7 7.6 81 1013.9 3.1 W 3.1 0.0 0.0
01:23 10.6 7.5 81 1013.8 3.1 NW 3.1 0.0 0.0
01:24 10.6 7.5 81 1013.9 3.1 SW 3.1 0.0 0.0
01:25 10.6 7.5 81 1014.0 2.2 SW 3.1 0.0 0.0
01:26 10.6 7.5 81 1014.0 2.2 SW 3.1 0.0 0.0
01:27 10.6 7.5 81 1014.0 3.8 SW 3.8 0.0 0.0
01:29 10.6 7.5 81 1014.0 3.1 W 3.8 0.0 0.0
01:30 10.6 7.5 81 1014.0 5.4 SW 5.4 0.0 0.0
01:31 10.6 7.5 81 1014.0 3.8 W 5.4 0.0 0.0
01:32 10.5 7.4 81 1014.0 6.0 W 6.0 0.0 0.0
01:33 10.5 7.4 81 1014.0 3.8 SW 6.0 0.0 0.0
01:34 10.5 7.4 81 1014.0 3.8 SW 6.0 0.0 0.0
01:35 10.5 7.4 81 1014.1 3.1 W 6.0 0.0 0.0
01:36 10.5 7.4 81 1014.0 3.8 W 6.0 0.0 0.0
01:37 10.5 7.4 81 1014.0 3.1 W 6.0 0.0 0.0
01:38 10.5 7.4 81 1014.1 2.2 W 6.0 0.0 0.0
01:39 10.5 7.4 81 1014.1 2.2 W 6.0 0.0 0.0
01:40 10.5 7.4 81 1014.1 3.1 SW 6.0 0.0 0.0
01:41 10.5 7.4 81 1014.0 3.1 SW 6.0 0.0 0.0
01:42 10.5 7.4 81 1014.0 5.4 WSW 6.0 0.0 0.0
01:43 10.5 7.4 81 1014.0 2.2 W 6.0 0.0 0.0
01:44 10.5 7.4 81 1014.0 4.5 SW 5.4 0.0 0.0
01:45 10.5 7.4 81 1013.9 6.0 SW 6.0 0.0 0.0
01:46 10.5 7.4 81 1014.0 3.8 SW 6.0 0.0 0.0
01:48 10.5 7.4 81 1014.0 3.8 SW 6.0 0.0 0.0
01:49 10.5 7.6 82 1014.0 6.9 W 6.9 0.0 0.0
01:50 10.5 7.6 82 1013.9 6.0 SW 6.9 0.0 0.0
01:51 10.5 7.6 82 1013.9 6.0 SW 6.9 0.0 0.0
01:52 10.5 7.6 82 1014.0 6.0 SW 6.9 0.0 0.0
01:53 10.6 7.7 82 1014.0 4.5 SW 6.9 0.0 0.0
01:54 10.6 7.7 82 1014.0 5.4 SW 6.9 0.0 0.0
01:55 10.6 7.7 82 1013.9 2.2 W 6.9 0.0 0.0
01:56 10.6 7.7 82 1014.0 2.2 W 6.9 0.0 0.0
01:57 10.6 7.7 82 1014.1 2.2 SW 6.9 0.0 0.0
01:58 10.6 7.7 82 1014.1 2.2 SW 6.9 0.0 0.0
01:59 10.7 7.8 82 1013.9 3.8 SW 6.9 0.0 0.0
02:00 10.7 7.8 82 1013.9 3.1 WSW 6.0 0.0 0.0
02:01 10.7 7.8 82 1013.9 3.1 WSW 6.0 0.0 0.0
02:02 10.7 7.8 82 1014.0 3.1 WSW 6.0 0.0 0.0
02:03 10.7 7.8 82 1014.0 3.1 WSW 5.4 0.0 0.0
02:04 10.7 7.8 82 1014.0 3.1 WSW 5.4 0.0 0.0
02:05 10.7 7.8 82 1014.0 3.1 WSW 3.8 0.0 0.0
02:07 10.7 7.8 82 1014.0 2.2 SW 3.8 0.0 0.0
02:08 10.7 7.9 83 1014.0 2.2 SW 3.8 0.0 0.0
02:09 10.7 7.8 82 1014.0 2.2 S 3.8 0.0 0.0
02:10 10.7 7.9 83 1014.0 2.2 SW 3.8 0.0 0.0
02:11 10.7 7.8 82 1014.0 2.2 S 3.8 0.0 0.0
02:12 10.6 7.8 83 1014.0 2.2 SW 3.8 0.0 0.0
02:13 10.6 7.8 83 1014.0 2.2 SW 3.8 0.0 0.0
02:14 10.6 7.8 83 1014.0 2.2 SW 3.8 0.0 0.0
02:15 10.6 7.7 82 1013.9 2.2 SW 3.8 0.0 0.0
02:16 10.6 7.7 82 1014.0 2.2 SW 3.8 0.0 0.0
02:17 10.6 7.7 82 1014.0 2.2 SW 3.8 0.0 0.0
02:18 10.6 7.8 83 1013.9 2.2 SW 3.8 0.0 0.0
02:19 10.5 7.7 83 1013.9 3.1 SW 4.5 0.0 0.0
02:20 10.5 7.7 83 1013.9 3.1 SW 4.5 0.0 0.0
02:21 10.5 7.7 83 1014.0 3.1 SW 4.5 0.0 0.0
02:22 10.5 7.7 83 1013.9 3.1 SW 4.5 0.0 0.0
02:23 10.5 7.7 83 1014.0 3.1 W 4.5 0.0 0.0
02:25 10.5 7.7 83 1014.0 2.2 SW 4.5 0.0 0.0
02:26 10.5 7.7 83 1013.9 2.2 SW 4.5 0.0 0.0
02:27 10.5 7.7 83 1013.8 2.2 W 4.5 0.0 0.0
02:28 10.5 7.7 83 1013.8 3.1 W 4.5 0.0 0.0
02:29 10.4 7.6 83 1013.9 2.2 S 3.1 0.0 0.0
02:30 10.4 7.6 83 1013.9 2.2 SW 3.1 0.0 0.0
02:31 10.4 7.6 83 1013.9 0.0 SW 3.1 0.0 0.0
02:32 10.4 7.6 83 1013.9 0.0 S 3.1 0.0 0.0
02:33 10.4 7.6 83 1013.9 0.0 SW 3.1 0.0 0.0
02:34 10.4 7.6 83 1014.0 0.0 SW 3.1 0.0 0.0
02:35 10.4 7.6 83 1013.9 0.0 SW 3.1 0.0 0.0
02:36 10.4 7.6 83 1014.0 0.0 SW 3.1 0.0 0.0
02:37 10.4 7.6 83 1013.8 0.0 SW 3.1 0.0 0.0
02:38 10.4 7.6 83 1013.9 0.0 W 3.1 0.0 0.0
02:39 10.4 7.6 83 1013.9 0.0 SW 2.2 0.0 0.0
02:40 10.4 7.6 83 1013.8 2.2 SW 2.2 0.0 0.0
02:41 10.4 7.6 83 1013.8 1.6 SW 2.2 0.0 0.0
02:42 10.4 7.6 83 1013.9 0.0 SW 2.2 0.0 0.0
02:43 10.4 7.6 83 1013.7 0.0 SW 2.2 0.0 0.0
02:45 10.5 7.7 83 1013.8 0.0 WSW 2.2 0.0 0.0
02:46 10.5 7.7 83 1013.9 0.0 W 2.2 0.0 0.0
02:47 10.5 7.7 83 1013.9 0.0 SW 2.2 0.0 0.0
02:48 10.5 7.9 84 1013.8 0.0 W 2.2 0.0 0.0
02:49 10.6 7.8 83 1014.0 0.0 S 2.2 0.0 0.0
02:50 10.5 7.9 84 1013.9 0.0 SW 1.6 0.0 0.0
02:51 10.6 8.0 84 1014.0 0.0 SW 0.0 0.0 0.0
02:52 10.6 8.0 84 1013.9 0.0 W 0.0 0.0 0.0
02:53 10.6 8.0 84 1013.8 0.0 SW 0.0 0.0 0.0
02:54 10.6 8.0 84 1013.8 0.0 SW 0.0 0.0 0.0
02:55 10.6 8.0 84 1013.8 0.0 SW 0.0 0.0 0.0
02:56 10.7 8.1 84 1013.9 0.0 S 0.0 0.0 0.0
02:57 10.7 8.1 84 1013.8 0.0 SW 0.0 0.0 0.0
02:58 10.7 8.1 84 1013.7 0.0 SW 0.0 0.0 0.0
02:59 10.7 8.1 84 1013.8 0.0 SW 0.0 0.0 0.0
03:00 10.7 8.1 84 1013.8 0.0 W 0.0 0.0 0.0
03:01 10.7 8.1 84 1013.8 0.0 W 0.0 0.0 0.0
03:02 10.7 8.1 84 1013.8 0.0 W 0.0 0.0 0.0
03:03 10.7 8.1 84 1013.8 0.0 W 0.0 0.0 0.0
03:04 10.7 8.1 84 1013.8 0.0 W 0.0 0.0 0.0
03:05 10.8 8.2 84 1013.9 0.7 SW 0.7 0.0 0.0
03:06 10.9 8.3 84 1013.9 0.0 SW 0.7 0.0 0.0
03:07 10.9 8.3 84 1013.8 0.0 SW 0.7 0.0 0.0
03:08 10.9 8.5 85 1013.7 0.0 SW 0.7 0.0 0.0
03:09 10.9 8.5 85 1013.8 0.0 SW 0.7 0.0 0.0
03:10 10.9 8.5 85 1013.7 0.0 SW 0.7 0.0 0.0
03:11 10.9 8.5 85 1013.8 0.7 S 0.7 0.0 0.0
03:12 11.0 8.6 85 1013.8 3.1 S 3.8 0.0 0.0
03:13 11.0 8.6 85 1013.8 3.8 SW 3.8 0.0 0.0
03:14 11.0 8.6 85 1013.8 3.8 SW 3.8 0.0 0.0
03:15 11.0 8.6 85 1013.7 2.2 NNW 3.8 0.0 0.0
03:16 11.0 8.6 85 1013.9 3.8 S 3.8 0.0 0.0
03:17 11.0 8.6 85 1013.6 3.1 WSW 3.8 0.0 0.0
03:18 11.0 8.6 85 1013.8 3.8 SW 3.8 0.0 0.0
03:19 11.0 8.6 85 1013.7 3.8 SW 3.8 0.0 0.0
03:20 11.1 8.7 85 1013.7 4.5 NW 4.5 0.0 0.0
03:21 11.1 8.7 85 1013.6 5.4 SW 5.4 0.0 0.0
03:22 11.1 8.7 85 1013.7 4.5 SW 5.4 0.0 0.0
03:24 11.2 8.8 85 1013.7 4.5 S 5.4 0.0 0.0
03:25 11.2 8.8 85 1013.8 4.5 SW 5.4 0.0 0.0
03:26 11.2 8.8 85 1013.7 2.2 SW 5.4 0.0 0.0
03:27 11.2 8.8 85 1013.7 0.7 SW 5.4 0.0 0.0
03:28 11.3 9.0 86 1013.8 3.8 NW 5.4 0.0 0.0
03:29 11.3 8.9 85 1013.7 4.5 S 5.4 0.0 0.0
03:30 11.3 9.0 86 1013.8 4.5 SW 5.4 0.0 0.0
03:31 11.3 9.0 86 1013.7 6.0 SW 6.0 0.0 0.0
03:32 11.3 9.0 86 1013.8 6.0 W 6.9 0.0 0.0
03:33 11.3 9.0 86 1013.7 3.8 SW 6.9 0.0 0.0
03:34 11.4 9.1 86 1013.7 5.4 SW 6.9 0.0 0.0
03:35 11.4 9.1 86 1013.8 4.5 W 6.9 0.0 0.0
03:36 11.4 9.1 86 1013.8 0.0 SW 6.9 0.0 0.0
03:37 11.4 9.1 86 1013.6 0.0 SW 6.9 0.0 0.0
03:38 11.4 9.1 86 1013.7 0.0 SW 6.9 0.0 0.0
03:39 11.4 9.1 86 1013.7 3.8 WSW 6.9 0.0 0.0
03:40 11.4 9.1 86 1013.8 3.8 SW 6.9 0.0 0.0
03:41 11.5 9.2 86 1013.7 3.8 SW 6.9 0.0 0.0
03:42 11.5 9.2 86 1013.8 6.0 SW 6.0 0.0 0.0
03:43 11.5 9.2 86 1013.7 3.8 W 6.0 0.0 0.0
03:44 11.5 9.2 86 1013.8 0.0 SW 6.0 0.0 0.0
03:45 11.5 9.2 86 1013.7 0.0 SW 6.0 0.0 0.0
03:46 11.5 9.2 86 1013.7 0.0 W 6.0 0.0 0.0
03:47 11.5 9.2 86 1013.6 0.0 W 6.0 0.8 0.1
03:48 11.6 9.3 86 1013.8 4.5 SW 6.0 0.8 0.1
03:49 11.6 9.3 86 1013.5 4.5 SW 6.0 0.8 0.1
03:50 11.6 9.3 86 1013.7 5.4 W 6.0 0.8 0.1
03:51 11.6 9.3 86 1013.6 4.5 SW 6.0 0.8 0.1
03:52 11.6 9.3 86 1013.7 7.6 SW 7.6 0.0 0.1
03:53 11.6 9.3 86 1013.7 6.0 WSW 7.6 0.0 0.1
03:54 11.6 9.3 86 1013.7 4.5 NW 7.6 0.0 0.1
03:55 11.6 9.3 86 1013.7 3.8 W 7.6 0.0 0.1
03:56 11.6 9.3 86 1013.6 5.4 NW 7.6 0.0 0.1
03:57 11.6 9.3 86 1013.7 3.1 W 7.6 0.0 0.1
03:58 11.6 9.5 87 1013.7 3.1 SW 7.6 0.0 0.1
03:59 11.6 9.5 87 1013.7 3.8 SW 7.6 0.0 0.1
04:00 11.6 9.3 86 1013.6 4.5 SW 7.6 0.0 0.1
04:01 11.6 9.3 86 1013.6 4.5 SW 7.6 0.0 0.1
04:02 11.6 9.3 86 1013.6 4.5 SW 6.0 0.0 0.1
04:03 11.6 9.3 86 1013.6 4.5 SW 5.4 0.0 0.1
04:04 11.6 9.3 86 1013.7 4.5 SW 5.4 0.0 0.1
04:05 11.6 9.5 87 1013.6 4.5 W 5.4 0.0 0.1
04:06 11.6 9.5 87 1013.6 3.1 SW 4.5 0.0 0.1
04:07 11.6 9.3 86 1013.6 0.7 SW 4.5 0.0 0.1
04:08 11.7 9.6 87 1013.6 0.0 SW 4.5 0.0 0.1
04:09 11.6 9.5 87 1013.7 0.0 SW 4.5 0.0 0.1
04:10 11.6 9.5 87 1013.7 0.0 SW 4.5 0.0 0.1
04:11 11.6 9.5 87 1013.5 3.8 SW 4.5 0.0 0.1
04:12 11.6 9.5 87 1013.5 3.1 SW 4.5 0.0 0.1
04:13 11.6 9.5 87 1013.7 2.2 SW 4.5 0.0 0.1
04:14 11.6 9.5 87 1013.7 3.8 W 5.4 0.0 0.1
04:15 11.6 9.5 87 1013.7 6.0 SW 6.0 0.0 0.1
04:16 11.6 9.5 87 1013.7 4.5 NW 6.0 0.0 0.1
04:17 11.6 9.5 87 1013.7 4.5 W 6.0 0.0 0.1
04:18 11.6 9.5 87 1013.8 4.5 WNW 6.0 0.0 0.1
04:19 11.6 9.5 87 1013.5 3.1 SW 6.0 0.0 0.1
04:20 11.6 9.5 87 1013.7 0.0 W 6.0 0.0 0.1
04:21 11.6 9.5 87 1013.8 0.0 SW 6.0 0.0 0.1
04:22 11.6 9.5 87 1013.8 0.0 W 6.0 0.0 0.1
04:23 11.6 9.5 87 1013.8 4.5 WSW 6.0 0.0 0.1
04:24 11.6 9.5 87 1013.7 4.5 W 6.0 0.0 0.1
04:25 11.5 9.4 87 1013.6 1.6 W 6.0 0.0 0.1
04:26 11.5 9.4 87 1013.8 6.0 W 6.0 0.0 0.1
04:27 11.5 9.4 87 1013.7 2.2 SW 6.0 0.0 0.1
04:28 11.5 9.4 87 1013.8 3.8 W 6.0 0.0 0.1
04:29 11.5 9.4 87 1013.8 5.4 WNW 6.0 0.0 0.1
04:30 11.5 9.4 87 1013.7 6.0 SW 6.0 0.0 0.1
04:31 11.5 9.4 87 1013.6 3.8 SW 6.0 0.0 0.1
04:32 11.5 9.4 87 1013.7 3.1 SW 6.0 0.0 0.1
04:33 11.5 9.4 87 1013.7 6.0 W 6.0 0.0 0.1
04:34 11.5 9.4 87 1013.8 3.1 W 6.0 0.0 0.1
04:35 11.5 9.4 87 1013.6 6.0 W 6.0 0.0 0.1
04:36 11.4 9.3 87 1013.8 5.4 NW 6.0 0.0 0.1
04:37 11.4 9.3 87 1013.8 5.4 W 6.0 0.0 0.1
04:38 11.4 9.3 87 1013.8 6.0 SW 6.0 0.0 0.1
04:39 11.4 9.1 86 1013.8 5.4 W 6.0 0.0 0.1
04:40 11.4 9.1 86 1013.9 5.4 WSW 6.0 0.0 0.1
04:41 11.4 9.3 87 1013.9 3.8 SW 6.0 0.0 0.1
04:42 11.4 9.3 87 1013.9 3.1 W 6.0 0.0 0.1
04:43 11.4 9.1 86 1013.8 5.4 NW 6.0 0.0 0.1
04:44 11.4 9.3 87 1013.9 6.0 SW 6.0 0.0 0.1
04:45 11.4 9.1 86 1013.8 0.0 SE 6.0 0.0 0.1
04:46 11.3 9.2 87 1013.9 4.5 SW 6.0 0.0 0.1
04:47 11.3 9.2 87 1013.9 6.9 SW 6.9 0.0 0.1
04:48 11.3 9.0 86 1013.9 6.0 SW 6.9 0.0 0.1
04:49 11.3 9.0 86 1013.9 4.5 W 6.9 0.0 0.1
04:50 11.3 9.0 86 1014.0 0.7 W 6.9 0.0 0.1
04:51 11.3 9.0 86 1013.8 0.0 WNW 6.9 0.0 0.1
04:52 11.3 9.0 86 1013.7 0.0 SW 6.9 0.0 0.1
04:53 11.3 9.0 86 1013.9 0.0 W 6.9 0.0 0.1
04:54 11.3 9.0 86 1013.9 0.0 W 6.9 0.0 0.1
04:55 11.3 9.0 86 1013.9 0.0 SW 6.9 0.0 0.1
04:56 11.2 8.9 86 1013.8 0.0 W 6.9 0.0 0.1
04:57 11.2 8.9 86 1013.9 0.0 WNW 6.0 0.0 0.1
04:58 11.2 8.9 86 1014.0 0.0 SW 4.5 0.0 0.1
04:59 11.2 8.9 86 1014.0 0.0 W 0.7 0.0 0.1
05:00 11.2 8.9 86 1013.9 0.0 W 0.0 0.0 0.1
05:01 11.2 8.9 86 1013.9 0.0 W 0.0 0.0 0.1
05:02 11.2 8.9 86 1013.9 0.0 W 0.0 0.0 0.1
05:03 11.2 8.9 86 1013.9 0.0 W 0.0 0.0 0.1
05:04 11.2 8.9 86 1013.9 0.0 W 0.0 0.0 0.1
05:05 11.2 8.9 86 1013.8 0.0 W 0.0 0.0 0.1
05:06 11.1 8.8 86 1013.9 3.8 W 3.8 0.0 0.1
05:07 11.1 8.8 86 1013.9 0.0 W 3.8 0.0 0.1
05:08 11.0 8.8 86 1014.0 0.0 W 3.8 0.0 0.1
05:09 11.0 8.8 86 1013.9 0.0 SW 3.8 0.0 0.1
05:10 11.0 8.8 86 1014.0 0.0 SW 3.8 0.0 0.1
05:11 11.0 8.8 86 1013.8 0.0 W 3.8 0.0 0.1
05:12 10.9 8.7 86 1014.0 0.0 W 3.8 0.0 0.1
05:13 10.9 8.7 86 1013.9 0.0 SW 3.8 0.0 0.1
05:14 10.9 8.7 86 1013.8 0.0 WNW 3.8 0.0 0.1
05:15 10.9 8.7 86 1014.0 0.0 W 3.8 0.0 0.1
05:16 10.9 8.7 86 1013.8 0.0 S 0.0 0.0 0.1
05:17 10.9 8.7 86 1013.9 0.7 SW 0.7 0.0 0.1
05:18 10.8 8.6 86 1013.8 3.1 SW 3.1 0.0 0.1
05:19 10.8 8.6 86 1013.9 2.2 WSW 3.1 0.0 0.1
05:20 10.8 8.6 86 1013.8 3.1 SW 3.8 0.0 0.1
05:21 10.8 8.6 86 1013.8 3.1 SW 3.8 0.0 0.1
05:22 10.8 8.6 86 1013.8 4.5 NW 4.5 0.0 0.1
05:23 10.8 8.6 86 1013.9 3.1 W 4.5 0.0 0.1
05:24 10.7 8.5 86 1013.9 3.1 W 4.5 0.0 0.1
05:25 10.8 8.6 86 1013.9 3.8 WSW 4.5 0.0 0.1
05:26 10.7 8.5 86 1014.0 3.1 W 4.5 0.0 0.1
05:27 10.7 8.5 86 1014.0 3.1 W 4.5 0.0 0.1
05:28 10.7 8.5 86 1014.1 3.1 NW 4.5 0.0 0.1
05:29 10.7 8.5 86 1013.9 2.2 W 4.5 0.0 0.1
05:30 10.7 8.5 86 1014.0 3.1 SW 4.5 0.0 0.1
05:31 10.7 8.5 86 1014.0 2.2 SW 4.5 0.0 0.1
05:32 10.6 8.4 86 1014.0 1.6 S 3.8 0.0 0.1
05:33 10.6 8.4 86 1014.0 3.8 SW 3.8 0.0 0.1
05:34 10.6 8.4 86 1014.0 3.8 W 3.8 0.0 0.1
05:35 10.6 8.4 86 1014.0 2.2 N 3.8 0.0 0.1
05:36 10.6 8.4 86 1014.1 3.1 W 3.8 0.0 0.1
05:37 10.6 8.4 86 1014.0 1.6 W 3.8 0.0 0.1
05:38 10.5 8.3 86 1014.2 0.0 W 3.8 0.0 0.1
05:39 10.5 8.3 86 1014.0 0.0 SW 3.8 0.0 0.1
05:40 10.5 8.3 86 1014.0 0.0 W 3.8 0.0 0.1
05:41 10.5 8.3 86 1014.1 0.0 SW 3.8 0.0 0.1
05:42 10.5 8.3 86 1014.1 0.0 W 3.8 0.0 0.1
05:43 10.5 8.3 86 1014.0 0.0 W 3.8 0.0 0.1
05:44 10.5 8.3 86 1014.1 0.0 W 3.1 0.0 0.1
05:45 10.5 8.3 86 1014.1 0.0 SW 3.1 0.0 0.1
05:46 10.5 8.3 86 1014.1 0.0 W 2.2 0.0 0.1
05:47 10.5 8.3 86 1014.0 0.0 SW 2.2 0.0 0.1
05:48 10.5 8.3 86 1014.1 0.0 S 0.0 0.0 0.1
05:49 10.6 8.4 86 1014.0 0.0 W 0.0 0.0 0.1
05:50 10.6 8.4 86 1014.0 0.0 SW 0.0 0.0 0.1
05:51 10.5 8.3 86 1014.1 0.0 W 0.0 0.0 0.1
05:52 10.6 8.4 86 1014.1 0.0 SW 0.0 0.0 0.1
05:53 10.6 8.4 86 1014.1 0.0 W 0.0 0.0 0.1
05:54 10.5 8.3 86 1014.2 0.0 W 0.0 0.0 0.1
05:55 10.6 8.4 86 1014.0 0.0 SW 0.0 0.0 0.1
05:56 10.5 8.3 86 1014.1 0.0 SW 0.0 0.0 0.1
05:57 10.5 8.3 86 1014.2 0.0 SW 0.0 0.0 0.1
05:58 10.5 8.3 86 1014.1 0.0 W 0.0 0.0 0.1
05:59 10.5 8.3 86 1014.1 0.0 W 0.0 0.0 0.1
06:00 10.5 8.3 86 1014.2 0.0 W 0.0 0.0 0.1
06:01 10.5 8.3 86 1014.2 0.0 W 0.0 0.0 0.1
06:02 10.5 8.3 86 1014.3 0.0 W 0.0 0.0 0.1
06:03 10.5 8.3 86 1014.1 0.0 W 0.0 0.0 0.1
06:04 10.5 8.3 86 1014.2 0.0 W 0.0 0.0 0.1
06:05 10.6 8.4 86 1014.2 0.0 SW 0.0 0.0 0.1
06:06 10.6 8.4 86 1014.1 0.0 SW 0.0 0.0 0.1
06:07 10.6 8.4 86 1014.0 0.0 SW 0.0 0.0 0.1
06:08 10.6 8.4 86 1014.3 0.0 SW 0.0 0.0 0.1
06:09 10.6 8.4 86 1014.0 0.0 SW 0.0 0.0 0.1
06:10 10.6 8.4 86 1014.2 0.0 SW 0.0 0.0 0.1
06:11 10.6 8.4 86 1014.2 0.0 SW 0.0 0.0 0.1
06:12 10.6 8.4 86 1014.2 0.0 SW 0.0 0.0 0.1
06:13 10.6 8.4 86 1014.2 0.0 S 0.0 0.0 0.1
06:14 10.6 8.4 86 1014.2 0.0 SW 0.0 0.0 0.1
06:15 10.6 8.4 86 1014.2 0.0 SW 0.0 0.0 0.1
06:16 10.6 8.4 86 1014.0 0.0 SW 0.0 0.0 0.1
06:17 10.6 8.4 86 1014.2 0.0 SW 0.0 0.0 0.1
06:18 10.6 8.4 86 1014.0 0.0 SW 0.0 0.0 0.1
06:19 10.6 8.4 86 1014.1 0.0 SW 0.0 0.0 0.1
06:20 10.6 8.4 86 1014.2 0.0 SW 0.0 0.0 0.1
06:21 10.6 8.4 86 1014.2 0.0 SW 0.0 0.0 0.1
06:22 10.6 8.4 86 1014.2 0.0 SW 0.0 0.0 0.1
06:24 10.6 8.4 86 1014.2 0.0 SW 0.0 0.0 0.1
06:25 10.6 8.4 86 1014.2 0.0 S 0.0 0.0 0.1
06:26 10.6 8.4 86 1014.2 0.0 S 0.0 0.0 0.1
06:27 10.6 8.4 86 1014.3 0.0 S 0.0 0.0 0.1
06:28 10.6 8.4 86 1014.2 0.0 S 0.0 0.0 0.1
06:29 10.6 8.4 86 1014.2 0.0 S 0.0 0.0 0.1
06:30 10.6 8.4 86 1014.2 0.0 S 0.0 0.0 0.1
06:31 10.6 8.4 86 1014.0 0.0 S 0.0 0.0 0.1
06:32 10.6 8.5 87 1014.2 0.0 S 0.0 0.0 0.1
06:33 10.7 8.5 86 1014.2 0.0 S 0.0 0.0 0.1
06:34 10.7 8.5 86 1014.2 0.0 S 0.0 0.0 0.1
06:35 10.7 8.6 87 1014.2 0.0 S 0.0 0.0 0.1
06:36 10.7 8.6 87 1014.2 0.0 S 0.0 0.0 0.1
06:37 10.7 8.6 87 1014.2 0.0 S 0.0 0.0 0.1
06:38 10.7 8.6 87 1014.1 0.0 S 0.0 0.0 0.1
06:39 10.7 8.6 87 1014.2 0.0 SW 0.0 0.0 0.1
06:40 10.7 8.6 87 1014.2 0.0 SW 0.0 0.0 0.1
06:41 10.8 8.7 87 1014.2 0.0 S 0.0 0.0 0.1
06:42 10.8 8.7 87 1014.2 0.0 S 0.0 0.0 0.1
06:43 10.8 8.7 87 1014.1 0.0 S 0.0 0.0 0.1
06:44 10.8 8.7 87 1014.3 0.0 S 0.0 0.0 0.1
06:45 10.8 8.7 87 1014.2 0.0 S 0.0 0.0 0.1
06:46 10.8 8.7 87 1014.2 0.0 S 0.0 0.0 0.1
06:47 10.9 8.8 87 1014.3 0.0 SW 0.0 0.0 0.1
06:49 10.9 8.8 87 1014.3 0.0 SW 0.0 0.0 0.1
06:50 10.9 8.8 87 1014.3 0.0 S 0.0 0.0 0.1
06:51 11.0 8.9 87 1014.3 0.0 S 0.0 0.0 0.1
06:52 11.0 8.9 87 1014.2 0.0 S 0.0 0.0 0.1
06:53 11.0 8.9 87 1014.3 0.0 SSW 0.0 0.0 0.1
06:54 11.1 9.0 87 1014.2 0.0 SW 0.0 0.0 0.1
06:55 11.1 9.0 87 1014.3 0.0 SW 0.0 0.0 0.1
06:56 11.1 9.0 87 1014.3 0.0 SW 0.0 0.0 0.1
06:57 11.1 9.0 87 1014.4 0.0 SW 0.0 0.0 0.1
06:58 11.2 9.1 87 1014.3 0.0 SW 0.0 0.0 0.1
06:59 11.2 9.1 87 1014.2 0.0 SW 0.0 0.0 0.1
07:00 11.3 9.2 87 1014.3 5.4 W 5.4 0.0 0.1
07:01 11.3 9.2 87 1014.3 5.4 W 5.4 0.0 0.1
07:02 11.3 9.2 87 1014.4 3.8 SW 5.4 0.0 0.1
07:03 11.4 9.3 87 1014.2 3.8 SW 5.4 0.0 0.1
07:04 11.4 9.3 87 1014.3 3.8 SW 5.4 0.0 0.1
07:05 11.4 9.5 88 1014.2 6.9 W 6.9 0.0 0.1
07:06 11.5 9.6 88 1014.2 6.9 WSW 6.9 0.0 0.1
07:07 11.6 9.7 88 1014.4 3.8 W 6.9 0.0 0.1
07:08 11.6 9.7 88 1014.3 4.5 W 6.9 0.0 0.1
07:09 11.6 9.7 88 1014.3 3.8 S 6.9 0.0 0.1
07:10 11.6 9.7 88 1014.3 4.5 W 6.9 0.0 0.1
07:11 11.7 9.8 88 1014.4 5.4 S 6.9 0.0 0.1
07:12 11.7 9.8 88 1014.4 5.4 S 6.9 0.0 0.1
07:13 11.8 9.9 88 1014.5 6.0 SW 6.9 0.0 0.1
07:14 11.8 9.9 88 1014.3 5.4 SW 6.9 0.0 0.1
07:15 11.8 9.9 88 1014.4 7.6 S 7.6 0.0 0.1
07:16 11.9 10.0 88 1014.3 4.5 S 7.6 0.0 0.1
07:17 11.9 10.0 88 1014.4 4.5 SW 7.6 0.0 0.1
07:18 11.9 10.0 88 1014.3 7.6 SW 7.6 0.0 0.1
07:19 11.9 10.0 88 1014.3 6.0 SW 7.6 0.0 0.1
07:20 12.0 10.1 88 1014.3 6.9 W 7.6 0.0 0.1
07:21 12.0 10.1 88 1014.4 7.6 SW 7.6 0.0 0.1
07:22 12.0 10.1 88 1014.4 7.6 SE 7.6 0.0 0.1
07:23 12.1 10.2 88 1014.2 4.5 SW 7.6 0.0 0.1
07:24 12.1 10.2 88 1014.4 3.8 SW 7.6 0.0 0.1
07:25 12.1 10.2 88 1014.5 6.0 SW 7.6 0.0 0.1
07:26 12.2 10.3 88 1014.3 8.3 SW 8.3 0.0 0.1
07:27 12.2 10.3 88 1014.3 8.3 SW 8.3 0.0 0.1
07:28 12.2 10.3 88 1014.4 6.0 SW 8.3 0.0 0.1
07:29 12.2 10.3 88 1014.5 7.6 SW 8.3 0.0 0.1
07:30 12.3 10.4 88 1014.5 8.3 SW 8.3 0.0 0.1
07:31 12.3 10.4 88 1014.5 8.3 SW 8.3 0.0 0.1
07:32 12.3 10.4 88 1014.5 8.3 SW 8.3 0.0 0.1
07:33 12.3 10.4 88 1014.3 8.3 W 8.3 0.0 0.1
07:34 12.3 10.4 88 1014.4 6.9 S 8.3 0.0 0.1
07:35 12.4 10.5 88 1014.5 8.3 SW 9.2 0.0 0.1
07:36 12.4 10.5 88 1014.4 7.6 WSW 9.2 0.0 0.1
07:37 12.4 10.5 88 1014.5 10.7 SW 10.7 0.0 0.1
07:38 12.4 10.5 88 1014.5 7.6 SW 10.7 0.0 0.1
07:39 12.4 10.5 88 1014.5 9.2 SW 10.7 0.0 0.1
07:40 12.4 10.5 88 1014.5 8.3 SSW 10.7 0.0 0.1
07:41 12.4 10.5 88 1014.5 5.4 SW 10.7 0.0 0.1
07:42 12.4 10.5 88 1014.5 7.6 SW 10.7 0.0 0.1
07:43 12.4 10.5 88 1014.5 9.2 SW 10.7 0.0 0.1
07:44 12.4 10.5 88 1014.5 9.8 SW 10.7 0.0 0.1
07:45 12.4 10.5 88 1014.6 7.6 SW 10.7 0.0 0.1
07:46 12.4 10.5 88 1014.5 8.3 W 10.7 0.0 0.1
07:47 12.4 10.5 88 1014.6 6.0 SW 9.8 0.0 0.1
07:48 12.4 10.5 88 1014.5 6.0 SW 9.8 0.0 0.1
07:49 12.4 10.5 88 1014.6 9.2 SW 9.8 0.0 0.1
07:51 12.4 10.5 88 1014.7 9.2 W 9.8 0.0 0.1
07:52 12.4 10.5 88 1014.5 10.7 SW 10.7 0.0 0.1
07:53 12.4 10.5 88 1014.5 10.7 SW 10.7 0.0 0.1
07:54 12.4 10.5 88 1014.6 7.6 SSW 10.7 0.0 0.1
07:55 12.5 10.6 88 1014.7 11.4 SW 11.4 0.0 0.1
07:56 12.5 10.6 88 1014.7 9.2 N 11.4 0.0 0.1
07:57 12.5 10.6 88 1014.6 8.3 SW 11.4 0.0 0.1
07:58 12.5 10.4 87 1014.6 11.4 W 11.4 0.0 0.1
07:59 12.5 10.4 87 1014.6 6.0 SW 11.4 0.0 0.1
08:00 12.5 10.4 87 1014.7 9.2 W 11.4 0.0 0.1
08:01 12.5 10.4 87 1014.5 9.2 W 11.4 0.0 0.1
08:02 12.6 10.5 87 1014.6 7.6 SSW 11.4 0.0 0.1
08:03 12.6 10.5 87 1014.7 12.1 S 12.1 0.0 0.1
08:04 12.6 10.5 87 1014.5 9.2 W 12.1 0.0 0.1
08:05 12.6 10.5 87 1014.7 8.3 S 12.1 0.0 0.1
08:06 12.7 10.6 87 1014.5 9.2 S 12.1 0.0 0.1
08:07 12.7 10.6 87 1014.6 10.7 W 12.1 0.0 0.1
08:08 12.7 10.6 87 1014.6 9.2 SW 12.1 0.0 0.1
08:09 12.8 10.7 87 1014.5 6.0 SW 12.1 0.0 0.1
08:10 12.8 10.7 87 1014.5 6.9 S 12.1 0.0 0.1
08:11 12.8 10.7 87 1014.6 12.1 S 12.1 0.0 0.1
08:12 12.9 10.8 87 1014.6 10.7 SW 12.1 0.0 0.1
08:13 12.9 10.8 87 1014.6 6.9 NNW 12.1 0.0 0.1
08:14 12.9 10.6 86 1014.6 8.3 S 12.1 0.0 0.1
08:15 13.0 10.7 86 1014.5 9.8 S 12.1 0.0 0.1
08:16 13.0 10.7 86 1014.5 9.8 S 12.1 0.0 0.1
08:17 13.1 10.8 86 1014.5 8.3 S 12.1 0.0 0.1
08:18 13.1 10.8 86 1014.6 9.8 S 12.1 0.0 0.1
08:19 13.1 10.8 86 1014.6 8.3 WSW 12.1 0.0 0.1
08:20 13.1 10.8 86 1014.6 9.2 NW 12.1 0.0 0.1
08:21 13.2 10.9 86 1014.6 9.2 SW 12.1 0.0 0.1
08:22 13.2 10.9 86 1014.6 9.2 S 10.7 0.0 0.1
08:23 13.3 10.8 85 1014.6 12.1 SW 12.1 0.0 0.1
08:24 13.3 10.8 85 1014.7 10.7 SW 12.1 0.0 0.1
08:25 13.3 10.8 85 1014.7 9.2 NW 12.1 0.0 0.1
08:26 13.3 10.8 85 1014.7 7.6 S 12.1 0.0 0.1
08:27 13.4 10.9 85 1014.6 5.4 SW 12.1 0.0 0.1
08:28 13.4 10.9 85 1014.6 7.6 SW 12.1 0.0 0.1
08:29 13.4 10.9 85 1014.7 9.2 SW 12.1 0.0 0.1
08:30 13.4 10.9 85 1014.7 8.3 SW 12.1 0.0 0.1
08:31 13.5 11.0 85 1014.8 9.8 SW 12.1 0.0 0.1
08:32 13.5 11.0 85 1014.8 9.8 SW 12.1 0.0 0.1
08:33 13.5 11.0 85 1014.7 15.9 SW 15.9 0.0 0.1
08:34 13.5 10.9 84 1014.6 13.0 NW 15.9 0.0 0.1
08:35 13.5 10.9 84 1014.9 6.9 SW 15.9 0.0 0.1
08:36 13.5 10.9 84 1014.8 10.7 W 15.9 0.0 0.1
08:37 13.5 10.9 84 1014.8 9.2 SW 15.9 0.0 0.1
08:38 13.5 10.9 84 1014.7 10.7 SW 15.9 0.0 0.1
08:39 13.5 10.9 84 1014.7 9.2 SW 15.9 0.0 0.1
08:41 13.5 10.9 84 1014.9 9.2 SW 15.9 0.0 0.1
08:42 13.6 11.0 84 1014.9 9.8 SW 15.9 0.0 0.1
08:43 13.6 11.0 84 1014.9 10.7 WSW 15.9 0.0 0.1
08:44 13.6 11.0 84 1014.8 9.8 SW 10.7 0.0 0.1
08:45 13.6 10.8 83 1014.9 7.6 SW 10.7 0.0 0.1
08:46 13.6 10.8 83 1014.8 6.9 S 10.7 0.0 0.1
08:47 13.6 10.8 83 1015.0 10.7 SE 10.7 0.0 0.1
08:48 13.6 10.8 83 1014.9 12.1 SW 12.1 0.0 0.1
08:49 13.6 10.8 83 1014.9 8.3 SW 12.1 0.0 0.1
08:50 13.6 10.8 83 1014.9 9.2 SW 12.1 0.0 0.1
08:51 13.6 10.8 83 1014.9 11.4 SW 12.1 0.0 0.1
08:52 13.6 10.8 83 1015.0 10.7 W 12.1 0.0 0.1
08:53 13.6 10.8 83 1014.9 9.8 W 12.1 0.0 0.1
08:54 13.6 10.8 83 1014.9 13.6 S 13.6 0.0 0.1
08:56 13.7 10.9 83 1014.9 12.1 SW 14.5 0.0 0.1
08:57 13.7 10.9 83 1014.9 9.8 S 14.5 0.0 0.1
08:58 13.7 10.9 83 1015.0 11.4 SW 14.5 0.0 0.1
08:59 13.7 10.9 83 1015.0 9.8 SW 14.5 0.0 0.1
09:00 13.7 10.9 83 1014.9 9.8 SW 14.5 0.0 0.1
09:01 13.7 10.9 83 1014.8 9.8 SW 14.5 0.0 0.1
09:02 13.7 10.7 82 1015.0 10.7 SW 14.5 0.0 0.1
09:03 13.7 10.7 82 1015.0 9.2 SW 14.5 0.0 0.1
09:05 13.7 10.7 82 1014.8 9.2 SW 14.5 0.0 0.1
09:06 13.7 10.7 82 1015.0 8.3 SW 14.5 0.0 0.1
09:07 13.8 10.8 82 1015.0 10.7 S 12.1 0.0 0.1
09:08 13.8 10.8 82 1015.0 9.2 S 12.1 0.0 0.1
09:09 13.8 10.8 82 1015.0 11.4 SW 14.5 0.0 0.1
09:10 13.8 10.8 82 1014.9 7.6 S 14.5 0.0 0.1
09:12 13.8 10.8 82 1015.0 11.4 S 14.5 0.0 0.1
09:13 13.8 10.6 81 1015.0 10.7 SW 14.5 0.0 0.1
09:14 13.7 10.5 81 1015.0 10.7 SW 14.5 0.0 0.1
09:15 13.8 10.6 81 1015.0 12.1 WSW 14.5 0.0 0.1
09:16 13.8 10.6 81 1014.9 7.6 SW 14.5 0.0 0.1
09:17 13.7 10.5 81 1015.0 8.3 S 14.5 0.0 0.1
09:18 13.7 10.5 81 1015.0 8.3 S 14.5 0.0 0.1
09:19 13.8 10.6 81 1014.9 9.2 SW 13.0 0.0 0.1
09:20 13.8 10.6 81 1015.0 9.8 W 13.0 0.0 0.1
09:21 13.8 10.6 81 1015.1 9.2 SW 13.0 0.0 0.1
09:22 13.8 10.6 81 1015.0 10.7 NW 13.0 0.0 0.1
09:23 13.9 10.7 81 1015.0 10.7 S 13.0 0.0 0.1
09:24 13.9 10.7 81 1015.0 10.7 SW 13.0 0.0 0.1
09:25 14.0 10.8 81 1015.0 8.3 SW 13.0 0.0 0.1
09:27 14.2 10.8 80 1015.0 7.6 SW 10.7 0.0 0.1
09:28 14.2 10.8 80 1015.0 6.9 SW 10.7 0.0 0.1
09:29 14.2 10.8 80 1014.9 7.6 SW 10.7 0.0 0.1
09:30 14.2 10.8 80 1014.9 14.5 SW 14.5 0.0 0.1
09:31 14.3 10.9 80 1015.0 7.6 SW 14.5 0.0 0.1
09:32 14.3 10.9 80 1014.9 10.7 W 14.5 0.0 0.1
09:33 14.3 10.9 80 1014.9 10.7 W 14.5 0.0 0.1
09:34 14.3 10.9 80 1015.1 10.7 S 14.5 0.0 0.1
09:35 14.3 10.9 80 1015.1 9.8 SW 14.5 0.0 0.1
09:36 14.3 10.7 79 1015.1 7.6 S 14.5 0.0 0.1
09:37 14.3 10.7 79 1015.1 8.3 S 14.5 0.0 0.1
09:38 14.3 10.7 79 1015.1 10.7 SW 14.5 0.0 0.1
09:39 14.3 10.7 79 1015.1 7.6 W 14.5 0.0 0.1
09:40 14.3 10.7 79 1015.1 8.3 SW 14.5 0.0 0.1
09:42 14.3 10.5 78 1015.1 7.6 S 11.4 0.0 0.1
09:43 14.3 10.5 78 1015.1 10.7 SW 11.4 0.0 0.1
09:44 14.3 10.5 78 1015.1 10.7 SW 10.7 0.0 0.1
09:45 14.3 10.3 77 1015.1 6.9 W 10.7 0.0 0.1
09:46 14.3 10.3 77 1015.0 10.7 S 10.7 0.0 0.1
09:47 14.3 10.3 77 1015.1 12.1 SW 12.1 0.0 0.1
09:48 14.3 10.3 77 1015.0 11.4 N 12.1 0.0 0.1
09:49 14.3 10.3 77 1015.0 11.4 N 12.1 0.0 0.1
09:50 14.3 10.3 77 1015.1 9.8 W 12.1 0.0 0.1
09:51 14.3 10.1 76 1015.2 11.4 SW 13.0 0.0 0.1
09:52 14.3 10.1 76 1015.2 12.1 SW 13.0 0.0 0.1
09:53 14.3 10.1 76 1015.1 9.8 WSW 13.0 0.0 0.1
09:54 14.3 10.1 76 1015.2 9.8 W 13.0 0.0 0.1
09:55 14.3 9.9 75 1015.0 8.3 N 13.0 0.0 0.1
09:56 14.3 9.9 75 1015.2 10.7 SW 13.0 0.0 0.1
09:57 14.3 9.9 75 1015.3 10.7 W 13.0 0.0 0.1
09:59 14.3 9.9 75 1015.2 7.6 SW 13.0 0.0 0.1
10:00 14.3 9.9 75 1015.2 7.6 SW 12.1 0.0 0.1
10:01 14.4 10.0 75 1015.2 11.4 SW 12.1 0.0 0.1
10:02 14.5 10.1 75 1015.2 9.8 SW 12.1 0.0 0.1
10:03 14.6 10.2 75 1015.3 7.6 S 12.1 0.0 0.1
10:04 14.7 10.3 75 1015.3 9.8 S 12.1 0.0 0.1
10:05 14.7 10.3 75 1015.3 9.8 S 12.1 0.0 0.1
10:06 14.8 10.4 75 1015.2 10.7 SW 12.1 0.0 0.1
10:07 14.8 10.4 75 1015.3 9.8 SSW 13.0 0.0 0.1
10:08 14.9 10.5 75 1015.2 13.0 SW 13.0 0.0 0.1
10:09 14.9 10.3 74 1015.1 11.4 NW 13.0 0.0 0.1
10:10 15.0 10.4 74 1015.2 8.3 SW 13.0 0.0 0.1
10:11 15.0 10.6 75 1015.2 8.3 WNW 13.0 0.0 0.1
10:12 15.1 10.5 74 1015.2 9.2 S 13.0 0.0 0.1
10:13 15.1 10.5 74 1015.1 8.3 SW 13.0 0.0 0.1
10:14 15.2 10.6 74 1015.1 11.4 W 13.0 0.0 0.1
10:16 15.2 10.4 73 1015.4 13.0 SW 13.0 0.0 0.1
10:17 15.2 10.4 73 1015.4 12.1 S 13.0 0.0 0.1
10:18 15.2 10.4 73 1015.4 12.1 S 13.0 0.0 0.1
10:19 15.2 10.4 73 1015.4 10.7 SW 13.0 0.0 0.1
10:20 15.2 10.4 73 1015.3 10.7 SW 13.0 0.0 0.1
10:21 15.2 10.4 73 1015.3 10.7 SW 13.0 0.0 0.1
10:22 15.2 10.4 73 1015.3 9.2 W 13.0 0.0 0.1
10:23 15.2 10.2 72 1015.1 11.4 W 13.0 0.0 0.1
10:24 15.2 10.2 72 1015.3 7.6 SW 13.0 0.0 0.1
10:25 15.2 10.2 72 1015.1 7.6 SW 13.0 0.0 0.1
10:26 15.3 10.3 72 1015.2 7.6 SW 13.0 0.0 0.1
10:27 15.4 10.4 72 1015.1 10.7 SW 12.1 0.0 0.1
10:28 15.4 10.4 72 1015.3 7.6 W 12.1 0.0 0.1
10:29 15.5 10.5 72 1015.2 10.7 SW 12.1 0.0 0.1
10:30 15.6 10.6 72 1015.2 9.8 SSW 12.1 0.0 0.1
10:32 15.7 10.5 71 1015.1 12.1 SW 13.0 0.0 0.1
10:33 15.7 10.5 71 1015.3 10.7 S 13.0 0.0 0.1
10:34 15.7 10.5 71 1015.2 10.7 SW 13.0 0.0 0.1
10:35 15.8 10.6 71 1015.2 12.1 NW 13.0 0.0 0.1
10:36 15.8 10.3 70 1015.3 13.6 SW 13.6 0.0 0.1
10:37 15.7 10.3 70 1015.3 10.7 SW 13.6 0.0 0.1
10:38 15.7 10.3 70 1015.0 13.0 W 13.6 0.0 0.1
10:39 15.6 10.2 70 1015.1 13.6 S 13.6 0.0 0.1
10:40 15.6 10.2 70 1015.2 8.3 SW 13.6 0.0 0.1
10:41 15.6 10.2 70 1015.4 10.7 SE 13.6 0.0 0.1
10:42 15.5 9.8 69 1015.3 9.8 SW 13.6 0.0 0.1
10:43 15.4 9.7 69 1015.2 13.0 S 13.6 0.0 0.1
10:44 15.4 9.7 69 1015.2 11.4 S 13.6 0.0 0.1
10:45 15.4 9.7 69 1015.3 10.7 SW 13.6 0.0 0.1
10:46 15.3 9.7 69 1015.3 9.8 SW 13.6 0.0 0.1
10:47 15.2 9.3 68 1015.4 13.0 S 13.6 0.0 0.1
10:49 15.1 9.2 68 1015.4 10.7 S 14.5 0.0 0.1
10:50 15.0 9.4 69 1015.3 8.3 SW 14.5 0.0 0.1
10:51 14.9 9.3 69 1015.2 13.0 S 14.5 0.0 0.1
10:52 14.8 9.2 69 1015.3 15.2 S 15.2 0.0 0.1
10:53 14.8 9.2 69 1015.3 13.6 SW 15.2 0.0 0.1
10:54 14.7 9.1 69 1015.3 13.6 SW 15.2 0.0 0.1
10:55 14.6 9.0 69 1015.2 8.3 S 15.2 0.0 0.1
10:56 14.6 9.0 69 1015.4 12.1 SW 15.2 0.0 0.1
10:57 14.6 9.0 69 1015.4 8.3 S 15.2 0.0 0.1
10:58 14.5 9.1 70 1015.4 15.9 SW 15.9 0.0 0.1
10:59 14.5 9.1 70 1015.3 10.7 W 15.9 0.0 0.1
11:00 14.5 9.1 70 1015.4 9.8 S 15.9 0.0 0.1
11:01 14.5 9.1 70 1015.4 9.8 S 15.9 0.0 0.1
11:02 14.4 9.2 71 1015.4 9.8 SW 15.9 0.0 0.1
11:03 14.5 9.3 71 1015.4 8.3 SW 15.9 0.0 0.1
11:04 14.5 9.3 71 1015.4 13.6 SW 15.9 0.0 0.1
11:05 14.6 9.6 72 1015.4 7.6 S 15.9 0.0 0.1
11:06 14.7 9.7 72 1015.3 9.2 SW 15.9 0.0 0.1
11:07 14.9 9.9 72 1015.3 8.3 SW 15.9 0.0 0.1
11:09 15.0 10.0 72 1015.3 15.9 SW 17.4 0.0 0.1
11:10 15.1 10.1 72 1015.6 13.6 NE 17.4 0.0 0.1
11:11 15.1 10.1 72 1015.4 16.8 SW 17.4 0.0 0.1
11:12 15.1 10.1 72 1015.4 13.0 SW 17.4 0.0 0.1
11:13 15.2 10.0 71 1015.5 16.8 N 17.4 0.0 0.1
11:14 15.2 10.0 71 1015.4 12.1 S 17.4 0.0 0.1
11:15 15.4 10.2 71 1015.3 15.2 S 17.4 0.0 0.1
11:16 15.2 10.0 71 1015.3 13.0 S 17.4 0.0 0.1
11:17 15.3 10.1 71 1015.4 12.1 SW 17.4 0.0 0.1
11:18 15.3 10.1 71 1015.4 13.6 SW 17.4 0.0 0.1
11:19 15.3 10.1 71 1015.3 15.9 SW 16.8 0.0 0.1
11:20 15.4 10.0 70 1015.4 15.2 SW 16.8 0.0 0.1
11:21 15.3 9.9 70 1015.4 13.0 SW 16.8 0.0 0.1
11:22 15.3 9.9 70 1015.5 12.1 SW 16.8 0.0 0.1
11:23 15.4 10.0 70 1015.4 10.7 S 16.8 0.0 0.1
11:24 15.4 10.0 70 1015.5 11.4 SSW 15.9 0.0 0.1
11:25 15.3 9.7 69 1015.5 15.2 S 15.9 0.0 0.1
11:27 15.3 9.7 69 1015.5 12.1 S 15.9 0.0 0.1
11:28 15.3 9.7 69 1015.4 16.8 SW 16.8 0.0 0.1
11:29 15.2 9.6 69 1015.6 11.4 S 16.8 0.0 0.1
11:30 15.2 9.6 69 1015.5 10.7 SW 16.8 0.0 0.1
11:31 15.2 9.6 69 1015.5 15.2 SW 16.8 0.0 0.1
11:32 15.2 9.6 69 1015.7 10.7 WSW 16.8 0.0 0.1
11:33 15.1 9.5 69 1015.6 11.4 SW 16.8 0.0 0.1
11:34 15.1 9.5 69 1015.7 11.4 S 16.8 0.0 0.1
11:35 15.0 9.4 69 1015.5 10.7 S 16.8 0.0 0.1
11:36 15.0 9.4 69 1015.5 10.7 S 16.8 0.0 0.1
11:37 15.0 9.4 69 1015.5 13.6 WSW 16.8 0.0 0.1
11:38 14.9 9.3 69 1015.7 15.9 WSW 16.8 0.0 0.1
11:39 14.9 9.3 69 1015.7 10.7 S 15.9 0.0 0.1
11:40 14.9 9.3 69 1015.7 9.8 SSW 15.9 0.0 0.1
11:41 14.9 9.5 70 1015.6 11.4 SW 15.9 0.0 0.1
11:42 14.9 9.5 70 1015.5 9.2 W 15.9 0.0 0.1
11:43 14.9 9.5 70 1015.5 9.2 W 15.9 0.0 0.1
11:45 15.0 9.6 70 1015.7 13.0 SW 15.9 0.0 0.1
11:46 15.0 9.6 70 1015.5 13.6 SW 15.9 0.0 0.1
11:47 15.0 9.4 69 1015.5 11.4 SW 15.9 0.0 0.1
11:48 15.0 9.4 69 1015.5 10.7 W 15.9 0.0 0.1
11:49 15.1 9.5 69 1015.5 11.4 W 13.6 0.0 0.1
11:50 15.1 9.5 69 1015.6 11.4 SW 13.6 0.0 0.1
11:51 15.1 9.5 69 1015.5 9.8 SW 13.6 0.0 0.1
11:52 15.1 9.2 68 1015.5 9.2 SW 13.6 0.0 0.1
11:53 15.1 9.2 68 1015.7 13.0 SW 13.6 0.0 0.1
11:54 15.1 9.2 68 1015.7 15.2 SW 15.2 0.0 0.1
11:56 15.0 9.1 68 1015.8 11.4 SW 15.2 0.0 0.1
11:57 15.0 9.1 68 1015.7 15.9 SW 15.9 0.0 0.1
11:58 15.0 9.1 68 1015.6 13.0 SW 15.9 0.0 0.1
11:59 14.9 9.1 68 1015.7 14.5 SW 15.9 0.0 0.1
12:00 14.9 9.1 68 1015.7 14.5 SW 15.9 0.0 0.1
12:01 14.9 9.1 68 1015.6 9.2 NW 15.9 0.0 0.1
12:02 15.0 9.1 68 1015.6 6.9 SW 15.9 0.0 0.1
12:03 15.0 9.1 68 1015.5 11.4 NW 15.9 0.0 0.1
12:04 15.1 9.5 69 1015.7 12.1 S 15.9 0.0 0.1
12:05 15.1 9.5 69 1015.7 13.6 SE 15.9 0.0 0.1
12:06 15.1 9.5 69 1015.7 13.6 SE 15.9 0.0 0.1
12:07 15.2 9.3 68 1015.8 16.8 SW 16.8 0.0 0.1
12:08 15.2 9.3 68 1015.9 19.0 S 19.0 0.8 0.1
12:09 15.1 9.2 68 1016.0 19.0 SW 19.7 2.3 0.3
12:10 15.0 9.1 68 1016.0 11.4 W 19.7 3.0 0.3
12:11 14.9 9.1 68 1015.9 9.2 W 19.7 3.0 0.3
12:12 14.8 9.0 68 1015.9 14.5 SW 19.7 3.0 0.3
12:13 14.6 8.8 68 1015.9 13.6 SW 19.7 2.3 0.3
12:14 14.6 8.8 68 1015.7 13.0 SW 19.7 0.8 0.3
12:16 14.4 8.6 68 1015.8 11.4 SW 19.7 0.8 0.4
12:17 14.4 8.6 68 1015.9 9.2 SW 19.7 0.8 0.4
12:18 14.3 8.7 69 1015.9 9.2 S 19.7 0.8 0.4
12:19 14.3 8.7 69 1015.7 12.1 S 14.5 0.8 0.4
12:20 14.3 8.7 69 1015.7 12.1 S 14.5 0.8 0.4
12:21 14.3 8.9 70 1015.6 13.0 S 14.5 0.0 0.4
12:22 14.4 9.0 70 1015.6 11.4 SW 13.6 0.0 0.4
12:23 14.4 9.2 71 1015.6 11.4 SW 13.6 0.0 0.4
12:24 14.5 9.3 71 1015.7 12.1 S 13.0 0.0 0.4
12:25 14.6 9.4 71 1015.7 13.0 S 13.0 0.0 0.4
12:26 14.6 9.4 71 1015.7 13.0 S 13.0 0.0 0.4
12:27 14.7 9.5 71 1015.7 11.4 S 13.0 0.0 0.4
12:28 14.8 9.6 71 1015.9 15.9 S 15.9 0.0 0.4
12:29 14.9 9.9 72 1015.7 18.3 SW 18.3 0.0 0.4
12:31 15.0 9.8 71 1015.7 14.5 SW 18.3 0.0 0.4
12:32 14.9 9.7 71 1015.8 13.0 S 18.3 0.0 0.4
12:33 15.0 9.8 71 1015.7 13.6 SW 18.3 0.0 0.4
12:34 15.0 9.8 71 1015.8 13.6 S 18.3 0.0 0.4
12:35 15.0 9.6 70 1015.8 13.0 S 18.3 0.0 0.4
12:36 15.0 9.8 71 1015.8 13.0 S 18.3 0.0 0.4
12:37 15.2 10.0 71 1015.8 14.5 SW 18.3 0.0 0.4
12:38 15.2 10.0 71 1015.7 13.0 SW 18.3 0.0 0.4
12:39 15.3 9.9 70 1015.7 11.4 SE 18.3 0.0 0.4
12:40 15.3 10.1 71 1015.8 10.7 S 16.8 0.0 0.4
12:41 15.4 10.2 71 1015.7 9.8 SW 15.2 0.0 0.4
12:42 15.5 10.3 71 1015.9 13.0 S 15.2 0.0 0.4
12:43 15.5 10.1 70 1015.8 16.8 S 16.8 0.0 0.4
12:44 15.5 10.1 70 1015.8 9.2 S 16.8 0.0 0.4
12:46 15.4 9.7 69 1016.0 17.4 WNW 17.4 0.0 0.4
12:47 15.4 9.7 69 1015.8 12.1 N 17.4 0.0 0.4
12:48 15.4 9.7 69 1015.8 15.2 SW 17.4 0.0 0.4
12:49 15.4 9.7 69 1015.8 9.2 SW 17.4 0.0 0.4
12:50 15.3 9.7 69 1015.9 9.8 NW 17.4 0.0 0.4
12:51 15.4 9.7 69 1015.8 10.7 W 17.4 0.0 0.4
12:52 15.4 9.7 69 1015.7 13.0 SW 17.4 0.0 0.4
12:53 15.4 9.7 69 1015.7 15.2 S 17.4 0.0 0.4
12:54 15.4 9.5 68 1015.8 17.4 S 17.4 0.0 0.4
12:55 15.5 9.6 68 1015.8 19.0 WNW 19.0 0.0 0.4
12:56 15.5 9.6 68 1015.8 15.2 S 19.0 0.0 0.4
12:57 15.5 9.6 68 1015.6 15.9 SW 19.0 0.0 0.4
12:58 15.6 9.5 67 1015.9 13.0 NW 19.0 0.0 0.4
12:59 15.6 9.7 68 1015.8 14.5 W 19.0 0.0 0.4
13:00 15.7 9.8 68 1015.9 10.7 SW 19.0 0.0 0.4
13:01 15.7 9.6 67 1015.7 11.4 S 19.0 0.0 0.4
13:03 15.8 9.5 66 1015.8 15.9 WSW 19.0 0.0 0.4
13:04 15.8 9.5 66 1015.7 13.0 SW 19.0 0.0 0.4
13:05 15.8 9.5 66 1016.0 11.4 S 18.3 0.0 0.4
13:06 15.9 9.6 66 1015.7 9.8 SW 18.3 0.0 0.4
13:07 16.0 9.9 67 1015.8 14.5 SE 17.4 0.0 0.4
13:08 16.1 10.0 67 1015.8 17.4 S 17.4 0.0 0.4
13:09 16.1 10.0 67 1015.6 15.2 S 17.4 0.0 0.4
13:10 16.2 9.8 66 1015.7 16.8 S 17.4 0.0 0.4
13:11 16.2 9.8 66 1015.8 13.6 S 17.4 0.0 0.4
13:12 16.2 9.8 66 1015.7 11.4 S 17.4 0.0 0.4
13:13 16.2 9.6 65 1015.8 17.4 WNW 17.4 0.0 0.4
13:14 16.2 9.6 65 1015.7 18.3 WNW 18.3 0.0 0.4
13:15 16.1 9.5 65 1015.8 15.9 SW 18.3 0.0 0.4
13:16 16.1 9.5 65 1015.7 17.4 S 18.3 0.0 0.4
13:17 16.0 9.2 64 1015.9 19.7 WSW 19.7 0.0 0.4
13:18 15.9 9.1 64 1015.8 18.3 SW 19.7 0.0 0.4
13:19 15.7 8.9 64 1015.9 13.6 SW 19.7 0.0 0.4
13:20 15.7 8.9 64 1016.0 15.2 S 19.7 0.0 0.4
13:22 15.5 8.7 64 1015.9 10.7 SW 19.7 0.0 0.4
13:23 15.4 8.6 64 1015.8 13.6 N 19.7 0.0 0.4
13:24 15.4 8.6 64 1015.9 12.1 SW 19.7 0.0 0.4
13:25 15.4 8.6 64 1015.8 13.6 SW 19.7 0.0 0.4
13:26 15.4 8.6 64 1015.8 13.6 SW 19.7 0.0 0.4
13:27 15.4 8.9 65 1015.8 11.4 SW 19.7 0.0 0.4
13:28 15.5 9.0 65 1015.8 12.1 SW 18.3 0.0 0.4
13:29 15.5 9.0 65 1015.9 13.6 SW 16.8 0.0 0.4
13:30 15.6 9.1 65 1015.8 11.4 SW 15.2 0.0 0.4
13:31 15.6 9.1 65 1015.7 15.2 S 15.2 0.0 0.4
13:32 15.6 9.1 65 1015.9 15.2 S 15.2 0.0 0.4
13:33 15.7 9.1 65 1015.9 13.0 S 20.6 0.0 0.4
13:34 15.7 8.9 64 1015.8 16.8 S 20.6 0.0 0.4
13:35 15.7 8.9 64 1016.0 16.8 WSW 20.6 0.0 0.4
13:37 15.7 8.9 64 1015.9 13.6 SW 20.6 0.0 0.4
13:38 15.7 8.9 64 1015.8 12.1 SW 20.6 0.0 0.4
13:39 15.7 8.9 64 1015.8 14.5 WSW 20.6 0.0 0.4
13:40 15.7 8.9 64 1016.0 11.4 S 20.6 0.0 0.4
13:41 15.7 8.9 64 1015.9 12.1 W 20.6 0.0 0.4
13:42 15.7 8.7 63 1015.9 11.4 W 20.6 0.0 0.4
13:43 15.8 8.8 63 1015.9 13.6 N 16.8 0.0 0.4
13:44 15.7 8.7 63 1015.8 15.2 SW 16.8 0.0 0.4
13:45 15.8 8.8 63 1016.0 10.7 SE 16.8 0.0 0.4
13:46 15.8 9.0 64 1015.8 16.8 SW 16.8 0.0 0.4
13:47 15.8 9.0 64 1015.9 14.5 SW 16.8 0.0 0.4
13:48 15.8 8.8 63 1016.0 14.5 SW 16.8 0.0 0.4
13:49 15.9 9.1 64 1015.9 13.0 SW 16.8 0.0 0.4
13:50 16.0 9.2 64 1015.9 13.6 SW 16.8 0.0 0.4
13:51 16.0 9.2 64 1016.0 9.8 WSW 16.8 0.0 0.4
13:52 16.1 9.1 63 1015.9 14.5 SW 16.8 0.0 0.4
13:54 16.1 8.8 62 1016.0 10.7 S 16.8 0.0 0.4
13:55 16.0 8.7 62 1016.1 9.2 W 16.8 0.0 0.4
13:56 16.0 8.7 62 1016.0 9.8 SW 14.5 0.0 0.4
13:57 16.0 9.0 63 1015.9 11.4 SW 14.5 0.0 0.4
13:58 15.9 8.6 62 1016.0 11.4 SW 14.5 0.0 0.4
13:59 15.9 8.6 62 1016.0 11.4 SW 14.5 0.0 0.4
14:00 15.9 8.6 62 1015.9 13.0 SW 14.5 0.0 0.4
14:01 15.9 8.6 62 1016.0 13.0 SW 14.5 0.0 0.4
14:02 16.0 9.0 63 1015.9 11.4 W 15.9 0.0 0.4
14:03 16.0 9.0 63 1015.8 10.7 SW 15.9 0.0 0.4
14:04 16.0 9.0 63 1016.0 9.8 NW 15.9 0.0 0.4
14:05 16.0 8.7 62 1016.0 14.5 SW 15.9 0.0 0.4
14:06 16.1 8.8 62 1016.0 13.6 SW 15.9 0.0 0.4
14:07 16.1 8.8 62 1016.1 13.0 WNW 15.9 0.0 0.4
14:08 16.0 8.7 62 1016.0 13.6 SW 15.9 0.0 0.4
14:09 16.0 8.7 62 1016.1 10.7 SW 15.9 0.0 0.4
14:11 15.9 8.6 62 1016.2 14.5 SW 15.2 0.0 0.4
14:12 15.8 8.5 62 1016.0 13.6 NW 15.2 0.0 0.4
14:13 15.8 8.5 62 1016.1 13.0 NW 15.2 0.0 0.4
14:14 15.7 8.4 62 1016.0 11.4 SW 16.8 0.0 0.4
14:15 15.7 8.4 62 1016.0 9.2 W 16.8 0.0 0.4
14:16 15.7 8.4 62 1016.0 9.2 W 16.8 0.0 0.4
14:17 15.7 8.4 62 1016.0 12.1 SW 16.8 0.0 0.4
14:18 15.7 8.7 63 1016.0 11.4 SW 16.8 0.0 0.4
14:19 15.6 8.6 63 1016.1 13.6 WNW 16.8 0.0 0.4
14:20 15.6 8.6 63 1016.0 13.0 SW 16.8 0.0 0.4
14:21 15.6 8.6 63 1016.1 13.6 WSW 16.8 0.0 0.4
14:22 15.7 8.7 63 1016.1 10.7 S 16.8 0.0 0.4
14:23 15.7 8.7 63 1016.1 11.4 SW 16.8 0.0 0.4
14:24 15.8 8.8 63 1016.0 13.0 W 16.8 0.0 0.4
14:25 15.9 8.9 63 1016.0 13.6 SW 13.6 0.0 0.4
14:26 16.0 8.7 62 1016.0 14.5 W 15.9 0.0 0.4
14:27 16.0 8.7 62 1016.1 15.9 SW 15.9 0.0 0.4
14:28 16.0 8.7 62 1016.1 13.6 W 15.9 0.0 0.4
14:30 15.9 8.4 61 1016.1 12.1 SW 15.9 0.0 0.4
14:31 15.9 8.4 61 1016.0 15.2 NW 15.9 0.0 0.4
14:32 15.9 8.4 61 1016.3 17.4 S 17.4 0.0 0.4
14:33 15.8 8.3 61 1016.0 14.5 SW 17.4 0.0 0.4
14:34 15.8 8.3 61 1016.2 13.6 S 17.4 0.0 0.4
14:35 15.7 8.2 61 1016.2 13.0 WNW 17.4 0.0 0.4
14:36 15.7 8.2 61 1016.1 12.1 S 17.4 0.0 0.4
14:37 15.6 8.1 61 1016.3 9.8 W 17.4 0.0 0.4
14:38 15.6 8.4 62 1016.3 9.2 NW 17.4 0.0 0.4
14:39 15.6 8.4 62 1016.3 9.8 SW 17.4 0.0 0.4
14:40 15.6 8.4 62 1016.3 13.6 SW 17.4 0.0 0.4
14:41 15.7 8.7 63 1016.3 9.2 SW 17.4 0.0 0.4
14:42 15.8 8.8 63 1016.2 15.9 NW 17.4 0.0 0.4
14:43 15.9 9.1 64 1016.2 11.4 WNW 15.9 0.0 0.4
14:44 16.0 9.2 64 1016.1 11.4 W 15.9 0.0 0.4
14:45 16.1 9.3 64 1016.1 13.6 SW 15.9 0.0 0.4
14:46 16.2 9.2 63 1016.3 13.6 SW 16.8 0.0 0.4
14:47 16.2 9.2 63 1016.4 12.1 NW 16.8 0.0 0.4
14:49 16.2 8.9 62 1016.1 14.5 W 16.8 0.0 0.4
14:50 16.3 9.0 62 1016.1 9.8 SE 16.8 0.0 0.4
14:51 16.3 9.3 63 1016.2 13.0 SW 16.8 0.0 0.4
14:52 16.3 9.3 63 1016.2 8.3 SW 16.8 0.0 0.4
14:53 16.4 9.3 63 1016.2 13.0 W 16.8 0.0 0.4
14:54 16.4 9.1 62 1016.3 16.8 S 16.8 0.0 0.4
14:55 16.5 9.2 62 1016.3 14.5 SW 16.8 0.0 0.4
14:56 16.5 9.2 62 1016.4 12.1 NW 16.8 0.0 0.4
14:57 16.5 9.0 61 1016.2 7.6 SW 16.8 0.0 0.4
14:58 16.5 9.0 61 1016.4 9.8 W 16.8 0.0 0.4
14:59 16.5 9.2 62 1016.4 12.1 S 16.8 0.0 0.4
15:00 16.5 9.0 61 1016.4 12.1 W 16.8 0.0 0.4
15:01 16.5 9.0 61 1016.3 12.1 WNW 16.8 0.0 0.4
15:02 16.5 9.0 61 1016.3 15.2 S 16.8 0.0 0.4
15:03 16.4 8.9 61 1016.1 12.1 SW 16.8 0.0 0.4
15:04 16.4 8.9 61 1016.2 13.0 SW 16.8 0.0 0.4
15:05 16.3 8.8 61 1016.4 12.1 NW 15.2 0.0 0.4
15:06 16.3 8.8 61 1016.2 15.2 NW 15.2 0.0 0.4
15:07 16.2 8.4 60 1016.3 12.1 SW 15.2 0.0 0.4
15:08 16.1 8.3 60 1016.3 11.4 WNW 15.2 0.0 0.4
15:09 16.1 8.3 60 1016.2 13.6 SW 15.2 0.0 0.4
15:10 16.1 8.3 60 1016.2 13.6 SW 15.2 0.0 0.4
15:11 16.0 8.2 60 1016.4 14.5 SW 15.2 0.0 0.4
15:12 15.9 8.2 60 1016.2 13.0 SW 15.9 0.0 0.4
15:13 15.9 8.2 60 1016.2 13.0 NNW 15.9 0.0 0.4
15:14 15.9 8.2 60 1016.4 12.1 S 15.9 0.0 0.4
15:15 15.8 8.1 60 1016.1 12.1 NW 15.9 0.0 0.4
15:16 15.8 8.1 60 1016.3 9.2 S 15.9 0.0 0.4
15:17 15.7 8.0 60 1016.4 11.4 W 15.9 0.0 0.4
15:18 15.8 8.3 61 1016.3 9.2 SW 15.9 0.0 0.4
15:19 15.8 8.3 61 1016.2 14.5 SW 15.9 0.0 0.4
15:20 15.8 8.3 61 1016.3 13.0 SW 15.9 0.0 0.4
15:22 15.9 8.4 61 1016.5 8.3 W 14.5 0.0 0.4
15:23 15.9 8.2 60 1016.5 13.0 NW 14.5 0.0 0.4
15:24 16.0 8.2 60 1016.3 9.2 SW 14.5 0.0 0.4
15:25 16.0 8.2 60 1016.3 9.2 WSW 14.5 0.0 0.4
15:26 16.0 8.2 60 1016.4 13.0 SW 14.5 0.0 0.4
15:27 16.0 8.2 60 1016.3 13.6 W 14.5 0.0 0.4
15:28 16.1 8.1 59 1016.3 11.4 S 17.4 0.0 0.4
15:29 16.2 8.4 60 1016.3 13.0 SW 17.4 0.0 0.4
15:30 16.2 8.4 60 1016.3 11.4 W 17.4 0.0 0.4
15:31 16.3 8.5 60 1016.4 13.0 W 17.4 0.0 0.4
15:32 16.3 8.3 59 1016.4 10.7 SW 17.4 0.0 0.4
15:33 16.3 8.3 59 1016.3 11.4 SW 17.4 0.0 0.4
15:34 16.3 8.3 59 1016.4 9.2 SW 17.4 0.0 0.4
15:35 16.3 8.0 58 1016.3 10.7 SW 17.4 0.0 0.4
15:36 16.3 8.0 58 1016.3 12.1 SW 17.4 0.0 0.4
15:37 16.3 8.0 58 1016.5 10.7 SW 17.4 0.0 0.4
15:38 16.3 8.3 59 1016.3 13.0 SW 13.0 0.0 0.4
15:39 16.4 8.4 59 1016.4 11.4 WSW 13.0 0.0 0.4
15:41 16.4 8.4 59 1016.5 7.6 NW 13.0 0.0 0.4
15:42 16.5 8.5 59 1016.4 10.7 W 13.0 0.0 0.4
15:43 16.6 8.6 59 1016.5 9.2 SW 13.0 0.0 0.4
15:44 16.6 8.6 59 1016.5 13.6 SW 13.6 0.0 0.4
15:45 16.7 8.4 58 1016.4 11.4 W 13.6 0.0 0.4
15:46 16.7 8.4 58 1016.4 8.3 W 13.6 0.0 0.4
15:47 16.7 8.4 58 1016.3 11.4 SW 13.6 0.0 0.4
15:48 16.8 8.5 58 1016.5 13.0 NW 15.9 0.0 0.4
15:49 16.9 8.3 57 1016.4 17.4 SW 17.4 0.0 0.4
15:50 16.9 8.1 56 1016.4 15.9 S 17.4 0.0 0.4
15:51 17.0 8.2 56 1016.4 23.5 SW 23.5 0.0 0.4
15:52 17.0 7.9 55 1016.5 13.6 NW 23.5 0.0 0.4
15:53 17.1 8.0 55 1016.4 10.7 W 23.5 0.0 0.4
15:54 17.1 8.0 55 1016.5 7.6 SW 23.5 0.0 0.4
15:55 17.2 8.1 55 1016.4 15.2 SSW 23.5 0.0 0.4
15:56 17.3 8.2 55 1016.5 11.4 NNE 23.5 0.0 0.4
15:57 17.3 7.9 54 1016.4 15.2 WSW 23.5 0.0 0.4
15:58 17.3 7.9 54 1016.4 18.3 SW 23.5 0.0 0.4
15:59 17.3 7.6 53 1016.5 14.5 SW 23.5 0.0 0.4
16:00 17.3 7.6 53 1016.5 14.5 SW 23.5 0.0 0.4
16:01 17.3 7.6 53 1016.5 14.5 SW 18.3 0.0 0.4
16:02 17.3 7.6 53 1016.5 14.5 SW 18.3 0.0 0.4
16:03 17.3 7.6 53 1016.4 14.5 SW 18.3 0.0 0.4
16:05 17.5 7.8 53 1016.3 14.5 W 18.3 0.0 0.4
16:06 17.6 7.9 53 1016.6 14.5 WNW 18.3 0.0 0.4
16:07 17.6 7.6 52 1016.6 17.4 NW 18.3 0.0 0.4
16:08 17.6 7.6 52 1016.4 16.8 SW 18.3 0.0 0.4
16:09 17.6 7.6 52 1016.5 15.2 S 17.4 0.0 0.4
16:10 17.6 7.6 52 1016.6 10.7 SW 17.4 0.0 0.4
16:11 17.6 7.6 52 1016.6 7.6 NW 17.4 0.0 0.4
16:12 17.6 7.6 52 1016.5 10.7 W 17.4 0.0 0.4
16:13 17.6 7.9 53 1016.5 13.0 W 17.4 0.0 0.4
16:14 17.7 7.4 51 1016.4 14.5 W 17.4 0.0 0.4
16:15 17.6 7.4 51 1016.5 12.1 SW 17.4 0.0 0.4
16:16 17.6 7.4 51 1016.4 15.2 SW 17.4 0.0 0.4
16:17 17.6 7.4 51 1016.4 15.2 SW 17.4 0.0 0.4
16:18 17.6 7.4 51 1016.5 15.2 WSW 17.4 0.0 0.4
16:19 17.6 7.1 50 1016.4 12.1 SW 15.2 0.0 0.4
16:20 17.6 7.4 51 1016.5 13.0 SW 15.2 0.0 0.4
16:21 17.5 7.3 51 1016.6 13.0 SW 15.2 0.0 0.4
16:22 17.5 7.3 51 1016.4 13.6 NW 15.2 0.0 0.4
16:24 17.6 7.4 51 1016.3 9.8 SW 15.2 0.0 0.4
16:25 17.6 7.4 51 1016.3 15.2 SW 15.2 0.0 0.4
16:26 17.6 7.4 51 1016.4 14.5 W 15.2 0.0 0.4
16:27 17.6 7.6 52 1016.4 9.2 W 15.2 0.0 0.4
16:28 17.7 7.7 52 1016.3 8.3 SW 15.2 0.0 0.4
16:29 17.8 8.1 53 1016.4 9.2 SW 15.2 0.0 0.4
16:30 17.9 8.2 53 1016.4 8.3 W 15.2 0.0 0.4
16:31 17.9 7.9 52 1016.4 13.0 SW 15.2 0.0 0.4
16:33 17.9 7.9 52 1016.4 14.5 SW 15.2 0.0 0.4
16:34 17.8 7.5 51 1016.4 14.5 W 15.2 0.0 0.4
16:35 17.6 7.4 51 1016.3 9.2 NW 15.2 0.0 0.4
16:36 17.6 7.4 51 1016.2 12.1 NE 14.5 0.0 0.4
16:37 17.6 7.4 51 1016.4 13.0 SW 14.5 0.0 0.4
16:38 17.5 7.3 51 1016.3 15.9 WSW 15.9 0.0 0.4
16:39 17.5 7.3 51 1016.4 10.7 WSW 15.9 0.0 0.4
16:40 17.5 7.3 51 1016.5 12.1 SW 15.9 0.0 0.4
16:41 17.5 7.3 51 1016.5 11.4 WSW 15.9 0.0 0.4
16:42 17.5 7.3 51 1016.5 9.8 S 15.9 0.0 0.4
16:43 17.4 7.2 51 1016.4 12.1 SW 15.9 0.0 0.4
16:44 17.4 7.2 51 1016.4 10.7 SW 15.9 0.0 0.4
16:45 17.2 7.0 51 1016.4 9.2 NW 15.9 0.0 0.4
16:46 17.3 7.1 51 1016.4 8.3 SW 15.9 0.0 0.4
16:47 17.1 6.9 51 1016.5 10.7 SW 15.9 0.0 0.4
16:48 17.1 6.9 51 1016.5 9.8 SW 15.9 0.0 0.4
16:49 17.0 7.1 52 1016.4 9.2 SW 12.1 0.0 0.4
16:50 17.0 7.1 52 1016.5 6.9 NW 12.1 0.0 0.4
16:52 16.9 7.3 53 1016.4 7.6 SW 12.1 0.0 0.4
16:53 17.0 7.6 54 1016.6 9.8 N 12.1 0.0 0.4
16:54 17.0 7.6 54 1016.5 13.6 SW 13.6 0.0 0.4
16:55 17.1 7.7 54 1016.5 13.6 SW 13.6 0.0 0.4
16:56 17.1 7.5 53 1016.4 9.8 S 13.6 0.0 0.4
16:57 17.1 7.5 53 1016.5 12.1 W 13.6 0.0 0.4
16:58 17.0 7.4 53 1016.6 15.2 W 15.2 0.0 0.4
16:59 17.0 7.4 53 1016.4 9.2 SW 15.2 0.0 0.4
17:00 17.0 7.4 53 1016.5 11.4 SW 15.2 0.0 0.4
17:01 17.0 7.4 53 1016.5 11.4 SW 15.2 0.0 0.4
17:02 16.9 7.3 53 1016.7 12.1 SW 15.2 0.0 0.4
17:03 16.9 7.3 53 1016.5 11.4 SW 15.2 0.0 0.4
17:04 16.8 7.2 53 1016.4 13.6 SW 15.2 0.0 0.4
17:05 16.8 7.2 53 1016.5 15.9 SW 15.9 0.0 0.4
17:06 16.8 7.2 53 1016.7 10.7 SE 15.9 0.0 0.4
17:07 16.7 7.1 53 1016.6 9.2 NNW 15.9 0.0 0.4
17:08 16.7 7.1 53 1016.5 11.4 SW 15.9 0.0 0.4
17:09 16.7 7.1 53 1016.5 13.6 NW 15.9 0.0 0.4
17:10 16.7 7.1 53 1016.6 9.2 S 15.9 0.0 0.4
17:11 16.6 7.0 53 1016.6 10.7 NW 15.9 0.0 0.4
17:13 16.5 7.2 54 1016.6 12.1 SW 15.9 0.0 0.4
17:14 16.5 7.2 54 1016.6 9.2 SW 15.9 0.0 0.4
17:15 16.5 7.2 54 1016.6 8.3 SW 15.9 0.0 0.4
17:16 16.5 7.4 55 1016.6 13.0 SW 13.6 0.0 0.4
17:17 16.5 7.4 55 1016.7 10.7 WNW 13.6 0.0 0.4
17:18 16.5 7.2 54 1016.7 9.2 S 13.6 0.0 0.4
17:19 16.5 7.4 55 1016.7 9.8 S 13.6 0.0 0.4
17:20 16.5 7.4 55 1016.7 8.3 SW 13.0 0.0 0.4
17:21 16.4 7.3 55 1016.6 14.5 S 14.5 0.0 0.4
17:23 16.3 7.2 55 1016.7 13.6 SW 14.5 0.0 0.4
17:24 16.3 7.2 55 1016.5 7.6 S 14.5 0.0 0.4
17:25 16.2 7.2 55 1016.7 9.2 SW 14.5 0.0 0.4
17:26 16.2 7.2 55 1016.7 12.1 SW 14.5 0.0 0.4
17:27 16.2 7.2 55 1016.7 10.7 SW 14.5 0.0 0.4
17:28 16.1 7.1 55 1016.6 18.3 WNW 18.3 0.0 0.4
17:29 16.0 7.0 55 1016.5 13.0 W 18.3 0.0 0.4
17:30 16.0 7.0 55 1016.6 15.2 SW 18.3 0.0 0.4
17:31 16.0 7.0 55 1016.6 13.0 S 18.3 0.0 0.4
17:32 16.0 7.2 56 1016.7 10.7 SW 18.3 0.0 0.4
17:33 15.9 7.1 56 1016.8 11.4 SW 18.3 0.0 0.4
17:34 15.9 7.1 56 1016.5 10.7 SW 18.3 0.0 0.4
17:35 15.9 7.1 56 1016.7 12.1 S 18.3 0.0 0.4
17:36 15.8 7.0 56 1016.5 10.7 SW 18.3 0.0 0.4
17:37 15.8 7.0 56 1016.7 11.4 W 18.3 0.0 0.4
17:38 15.8 7.3 57 1016.5 12.1 W 18.3 0.0 0.4
17:39 15.8 7.3 57 1016.5 11.4 SW 15.2 0.0 0.4
17:40 15.8 7.3 57 1016.4 11.4 SW 15.2 0.0 0.4
17:41 15.8 7.3 57 1016.5 12.1 S 13.0 0.0 0.4
17:42 15.7 7.2 57 1016.4 9.2 S 12.1 0.0 0.4
17:44 15.7 7.5 58 1016.5 9.8 SW 15.9 0.0 0.4
17:45 15.7 7.5 58 1016.6 12.1 SW 15.9 0.0 0.4
17:46 15.6 7.4 58 1016.7 9.2 WNW 15.9 0.0 0.4
17:47 15.5 7.3 58 1016.5 14.5 S 15.9 0.0 0.4
17:48 15.5 7.3 58 1016.7 16.8 SW 16.8 0.0 0.4
17:49 15.4 7.2 58 1016.8 16.8 SW 16.8 0.0 0.4
17:50 15.3 7.1 58 1016.9 16.8 SW 16.8 0.0 0.4
17:51 15.3 7.1 58 1016.8 15.2 SW 16.8 0.0 0.4
17:52 15.2 7.2 59 1016.8 14.5 SW 16.8 0.8 0.4
17:53 15.1 7.2 59 1016.8 13.0 WSW 16.8 0.8 0.4
17:54 15.1 7.2 59 1016.9 15.9 WSW 16.8 0.8 0.4
17:55 14.9 7.2 60 1016.8 12.1 SW 16.8 1.5 0.5
17:56 14.8 7.4 61 1016.6 13.6 SW 16.8 1.5 0.5
17:57 14.7 7.3 61 1016.7 15.2 SW 16.8 0.8 0.5
17:59 14.4 7.2 62 1016.8 11.4 W 16.8 0.8 0.5
18:00 14.4 7.2 62 1016.9 9.2 SW 16.8 0.0 0.5
18:01 14.4 7.2 62 1016.9 9.2 SW 15.9 0.0 0.5
18:02 14.2 7.3 63 1016.8 12.1 W 15.9 0.0 0.5
18:03 14.2 7.5 64 1016.9 10.7 SW 15.9 0.0 0.5
18:04 14.2 7.5 64 1016.8 9.2 W 15.9 0.0 0.5
18:05 14.1 7.6 65 1016.8 7.6 SW 15.2 0.0 0.5
18:06 14.1 7.6 65 1016.9 6.9 SW 15.2 0.0 0.5
18:07 14.1 7.6 65 1017.0 6.9 W 12.1 0.0 0.5
18:08 14.2 7.9 66 1017.0 7.6 NW 12.1 0.0 0.5
18:09 14.2 7.9 66 1017.0 6.0 SW 12.1 0.0 0.5
18:10 14.2 7.9 66 1017.0 7.6 WSW 12.1 0.0 0.5
18:11 14.2 7.9 66 1017.0 6.0 NW 12.1 0.0 0.5
18:12 14.2 8.2 67 1016.9 9.2 SW 12.1 0.0 0.5
18:13 14.3 8.3 67 1017.0 6.9 W 10.7 0.0 0.5
18:14 14.3 8.3 67 1017.0 8.3 SW 9.2 0.0 0.5
18:15 14.3 8.3 67 1016.9 8.3 SW 9.8 0.0 0.5
18:16 14.3 8.3 67 1017.1 7.6 S 9.8 0.0 0.5
18:18 14.4 8.6 68 1016.9 9.2 W 9.8 0.0 0.5
18:19 14.6 8.8 68 1016.9 10.7 W 12.1 0.0 0.5
18:20 14.7 8.9 68 1017.0 10.7 NW 12.1 0.0 0.5
18:21 14.7 8.9 68 1016.9 9.2 WSW 12.1 0.0 0.5
18:22 14.8 9.0 68 1016.8 11.4 W 12.1 0.0 0.5
18:23 14.8 9.0 68 1016.9 9.8 N 12.1 0.0 0.5
18:24 14.7 8.9 68 1016.9 12.1 NW 12.1 0.0 0.5
18:25 14.7 8.9 68 1016.9 9.8 NW 12.1 0.0 0.5
18:26 14.7 8.9 68 1016.9 9.2 NW 12.1 0.0 0.5
18:27 14.7 8.9 68 1016.8 10.7 S 12.1 0.0 0.5
18:28 14.7 8.9 68 1016.9 9.8 SW 12.1 0.0 0.5
18:29 14.7 8.6 67 1016.9 9.2 SW 12.1 0.0 0.5
18:30 14.7 8.9 68 1016.8 9.2 NW 12.1 0.0 0.5
18:31 14.7 8.9 68 1016.8 12.1 WSW 12.1 0.0 0.5
18:32 14.7 8.9 68 1016.9 9.8 WSW 12.1 0.0 0.5
18:33 14.7 8.9 68 1016.8 10.7 W 12.1 0.0 0.5
18:34 14.7 8.9 68 1016.8 10.7 SW 12.1 0.0 0.5
18:35 14.7 8.9 68 1017.0 10.7 SW 12.1 0.0 0.5
18:36 14.7 8.9 68 1016.9 9.8 SW 12.1 0.0 0.5
18:37 14.7 8.9 68 1016.7 7.6 SW 12.1 0.0 0.5
18:39 14.8 9.0 68 1016.9 12.1 S 12.1 0.0 0.5
18:40 14.8 9.0 68 1016.9 9.2 NW 12.1 0.0 0.5
18:41 14.8 9.0 68 1016.8 13.6 S 13.6 0.0 0.5
18:42 14.8 9.0 68 1016.9 11.4 SW 13.6 0.0 0.5
18:43 14.8 9.0 68 1016.9 8.3 WSW 13.6 0.0 0.5
18:44 14.8 8.7 67 1016.9 9.8 W 13.6 0.0 0.5
18:45 14.7 8.9 68 1016.8 7.6 SW 13.6 0.0 0.5
18:46 14.7 8.6 67 1017.0 12.1 W 13.6 0.0 0.5
18:47 14.7 8.9 68 1017.1 12.1 W 13.6 0.0 0.5
18:48 14.7 8.9 68 1017.0 8.3 SW 13.6 0.0 0.5
18:49 14.7 8.9 68 1017.0 8.3 SW 13.6 0.0 0.5
18:50 14.7 8.6 67 1016.9 9.2 SW 13.6 0.0 0.5
18:51 14.6 8.5 67 1017.1 9.8 W 13.6 0.0 0.5
18:52 14.6 8.5 67 1017.0 7.6 SSW 13.6 0.0 0.5
18:53 14.6 8.5 67 1017.0 8.3 N 13.6 0.0 0.5
18:54 14.6 8.5 67 1017.0 11.4 NW 13.6 0.0 0.5
18:55 14.6 8.5 67 1017.1 9.8 SW 13.6 0.0 0.5
18:56 14.6 8.5 67 1017.2 12.1 SSW 13.6 0.0 0.5
18:58 14.6 8.5 67 1017.0 7.6 S 13.6 0.0 0.5
18:59 14.6 8.5 67 1017.0 7.6 SW 13.6 0.0 0.5
19:00 14.6 8.8 68 1017.0 7.6 SW 13.6 0.0 0.5
19:01 14.7 8.9 68 1017.0 11.4 WNW 12.1 0.0 0.5
19:03 14.7 8.6 67 1016.9 9.8 NW 12.1 0.0 0.5
19:04 14.7 8.6 67 1016.9 9.8 W 12.1 0.0 0.5
19:05 14.6 8.8 68 1016.9 11.4 W 12.1 0.0 0.5
19:06 14.6 8.5 67 1016.9 9.8 WSW 12.1 0.0 0.5
19:07 14.6 8.5 67 1016.9 9.8 NW 11.4 0.0 0.5
19:08 14.6 8.5 67 1017.0 15.2 SW 15.2 0.0 0.5
19:09 14.6 8.5 67 1017.0 11.4 SW 15.2 0.0 0.5
19:10 14.6 8.5 67 1017.0 11.4 SW 15.2 0.0 0.5
19:11 14.6 8.5 67 1016.9 12.1 NW 15.2 0.0 0.5
19:12 14.6 8.5 67 1016.9 9.8 SW 15.2 0.0 0.5
19:14 14.6 8.5 67 1017.0 9.8 SW 15.2 0.0 0.5
19:15 14.6 8.8 68 1017.0 11.4 WSW 15.2 0.0 0.5
19:16 14.6 8.5 67 1017.0 9.2 NW 15.2 0.0 0.5
19:17 14.6 8.5 67 1017.0 11.4 WNW 15.2 0.0 0.5
19:18 14.6 8.5 67 1017.0 11.4 W 15.2 0.0 0.5
19:19 14.6 8.5 67 1016.9 10.7 SW 12.1 0.0 0.5
19:20 14.5 8.5 67 1016.9 10.7 WSW 12.1 0.0 0.5
19:21 14.5 8.5 67 1016.9 4.5 SW 11.4 0.0 0.5
19:22 14.5 8.5 67 1016.9 10.7 SW 11.4 0.0 0.5
19:23 14.5 8.5 67 1017.0 9.8 SW 11.4 0.0 0.5
19:24 14.4 8.4 67 1016.8 7.6 WSW 11.4 0.0 0.5
19:25 14.4 8.4 67 1017.0 6.0 SW 11.4 0.0 0.5
19:26 14.4 8.4 67 1017.1 7.6 SW 11.4 0.0 0.5
19:27 14.4 8.6 68 1017.0 6.9 SW 11.4 0.0 0.5
19:28 14.4 8.6 68 1017.1 13.0 SW 13.0 0.0 0.5
19:29 14.4 8.6 68 1017.1 9.8 SW 13.0 0.0 0.5
19:30 14.4 8.6 68 1016.9 9.8 NW 13.0 0.0 0.5
19:31 14.4 8.6 68 1017.1 8.3 W 13.0 0.0 0.5
19:32 14.4 8.6 68 1017.1 8.3 S 13.0 0.0 0.5
19:34 14.4 8.6 68 1017.1 7.6 SW 13.0 0.0 0.5
19:35 14.4 8.6 68 1017.1 7.6 SW 13.0 0.0 0.5
19:36 14.4 8.6 68 1017.1 9.8 SW 13.0 0.0 0.5
19:37 14.3 8.5 68 1017.2 8.3 SW 13.0 0.0 0.5
19:38 14.4 8.6 68 1017.1 10.7 W 10.7 0.0 0.5
19:39 14.3 8.5 68 1017.2 11.4 SW 11.4 0.0 0.5
19:40 14.3 8.7 69 1017.1 8.3 SW 11.4 0.0 0.5
19:41 14.3 8.7 69 1017.2 8.3 S 11.4 0.0 0.5
19:42 14.3 8.7 69 1017.2 12.1 NW 12.1 0.0 0.5
19:43 14.3 8.7 69 1017.1 13.6 WSW 13.6 0.0 0.5
19:44 14.3 8.7 69 1017.2 12.1 SW 13.6 0.0 0.5
19:45 14.3 8.7 69 1017.3 11.4 W 13.6 0.0 0.5
19:46 14.3 8.7 69 1017.3 11.4 W 13.6 0.0 0.5
19:47 14.2 8.4 68 1017.2 10.7 SW 13.6 0.0 0.5
19:48 14.2 8.4 68 1017.2 10.7 S 13.6 0.0 0.5
19:49 14.2 8.4 68 1017.2 8.3 NW 13.6 0.0 0.5
19:50 14.2 8.4 68 1017.1 8.3 SW 13.6 0.0 0.5
19:51 14.1 8.3 68 1017.3 6.9 SW 13.6 0.0 0.5
19:52 14.1 8.3 68 1017.3 8.3 W 13.6 0.0 0.5
19:53 14.1 8.3 68 1017.1 9.2 NW 13.6 0.0 0.5
19:54 14.1 8.5 69 1017.3 7.6 SW 12.1 0.0 0.5
19:55 14.1 8.5 69 1017.2 6.9 W 11.4 0.0 0.5
19:56 14.1 8.5 69 1017.2 9.8 WNW 10.7 0.0 0.5
19:57 14.0 8.4 69 1017.3 9.2 SW 11.4 0.0 0.5
19:58 14.0 8.4 69 1017.3 9.8 SW 11.4 0.0 0.5
19:59 14.0 8.4 69 1017.3 7.6 SW 11.4 0.0 0.5
20:00 14.0 8.4 69 1017.3 11.4 WSW 11.4 0.0 0.5
20:01 14.0 8.4 69 1017.2 8.3 SW 11.4 0.0 0.5
20:02 14.0 8.4 69 1017.2 8.3 SW 11.4 0.0 0.5
20:03 13.9 8.3 69 1017.2 6.0 SW 11.4 0.0 0.5
20:04 13.9 8.3 69 1017.2 9.8 SE 11.4 0.0 0.5
20:05 13.9 8.5 70 1017.3 9.2 SSW 11.4 0.0 0.5
20:06 13.9 8.5 70 1017.2 8.3 SW 11.4 0.0 0.5
20:07 13.9 8.5 70 1017.3 8.3 SW 11.4 0.0 0.5
20:08 13.9 8.5 70 1017.2 6.9 SW 11.4 0.0 0.5
20:10 13.8 8.4 70 1017.2 6.9 SW 11.4 0.0 0.5
20:11 13.8 8.4 70 1017.2 7.6 NW 9.8 0.0 0.5
20:12 13.8 8.4 70 1017.3 6.0 W 9.8 0.0 0.5
20:13 13.8 8.6 71 1017.2 7.6 SW 9.8 0.0 0.5
20:14 13.8 8.6 71 1017.2 8.3 SW 9.2 0.0 0.5
20:15 13.7 8.5 71 1017.1 4.5 SW 9.2 0.0 0.5
20:16 13.7 8.5 71 1017.3 6.9 WSW 9.2 0.0 0.5
20:17 13.7 8.5 71 1017.3 6.9 SW 9.2 0.0 0.5
20:18 13.7 8.5 71 1017.3 6.0 WNW 9.2 0.0 0.5
20:19 13.7 8.5 71 1017.3 6.0 W 8.3 0.0 0.5
20:20 13.7 8.5 71 1017.3 6.0 S 8.3 0.0 0.5
20:21 13.7 8.5 71 1017.3 5.4 SW 8.3 0.0 0.5
20:22 13.7 8.7 72 1017.2 3.8 SW 8.3 0.0 0.5
20:23 13.7 8.7 72 1017.3 6.0 NW 8.3 0.0 0.5
20:24 13.7 8.7 72 1017.4 12.1 SW 12.1 0.0 0.5
20:25 13.6 8.7 72 1017.3 10.7 SW 12.1 0.0 0.5
20:26 13.6 8.7 72 1017.2 9.2 W 12.1 0.0 0.5
20:27 13.6 8.7 72 1017.3 8.3 SW 12.1 0.0 0.5
20:28 13.6 8.7 72 1017.4 10.7 SW 12.1 0.0 0.5
20:29 13.6 8.7 72 1017.2 8.3 SW 12.1 0.0 0.5
20:30 13.6 8.7 72 1017.3 7.6 SW 12.1 0.0 0.5
20:31 13.6 8.7 72 1017.3 9.8 SW 12.1 0.0 0.5
20:32 13.5 8.6 72 1017.2 11.4 SW 12.1 0.0 0.5
20:33 13.5 8.6 72 1017.0 10.7 SW 12.1 0.0 0.5
20:34 13.5 8.6 72 1017.3 6.9 W 11.4 0.0 0.5
20:35 13.5 8.8 73 1017.5 9.2 W 11.4 0.0 0.5
20:36 13.5 8.8 73 1017.4 6.9 SW 11.4 0.0 0.5
20:37 13.5 8.8 73 1017.5 6.9 W 11.4 0.0 0.5
20:38 13.5 8.8 73 1017.4 6.0 SW 11.4 0.0 0.5
20:39 13.5 8.8 73 1017.3 6.0 W 11.4 0.0 0.5
20:40 13.5 8.8 73 1017.4 5.4 W 11.4 0.0 0.5
20:41 13.5 8.8 73 1017.5 5.4 NW 11.4 0.0 0.5
20:42 13.5 8.8 73 1017.5 3.8 W 11.4 0.0 0.5
20:43 13.5 8.8 73 1017.4 3.1 NW 10.7 0.0 0.5
20:44 13.5 8.8 73 1017.3 6.9 SW 9.2 0.0 0.5
20:45 13.5 8.8 73 1017.4 7.6 W 7.6 0.0 0.5
20:46 13.5 8.8 73 1017.4 6.9 NW 7.6 0.0 0.5
20:47 13.5 8.8 73 1017.4 5.4 SW 7.6 0.0 0.5
20:48 13.5 8.8 73 1017.3 5.4 W 7.6 0.0 0.5
20:49 13.5 8.8 73 1017.5 6.0 NW 7.6 0.0 0.5
20:50 13.5 9.0 74 1017.5 5.4 W 7.6 0.0 0.5
20:51 13.4 8.9 74 1017.4 6.9 WSW 7.6 0.0 0.5
20:52 13.4 8.9 74 1017.3 6.0 SE 7.6 0.0 0.5
20:53 13.4 8.9 74 1017.3 6.9 SW 7.6 0.0 0.5
20:54 13.4 8.9 74 1017.4 7.6 W 7.6 0.0 0.5
20:55 13.4 8.9 74 1017.4 6.0 NW 7.6 0.0 0.5
20:56 13.4 8.9 74 1017.5 4.5 WNW 7.6 0.0 0.5
20:57 13.4 8.9 74 1017.5 6.9 WSW 7.6 0.0 0.5
20:58 13.3 8.8 74 1017.5 6.0 SW 9.2 0.0 0.5
20:59 13.3 8.8 74 1017.5 6.9 W 9.2 0.0 0.5
21:01 13.3 8.8 74 1017.4 7.6 SW 9.2 0.0 0.5
21:02 13.3 8.8 74 1017.5 5.4 NW 9.2 0.0 0.5
21:03 13.3 8.8 74 1017.4 4.5 W 9.2 0.0 0.5
21:04 13.3 8.8 74 1017.5 3.8 SW 9.2 0.0 0.5
21:05 13.3 8.8 74 1017.4 5.4 NW 9.2 0.0 0.5
21:06 13.2 8.9 75 1017.5 6.0 SW 9.2 0.0 0.5
21:07 13.3 9.0 75 1017.4 6.9 SW 9.2 0.0 0.5
21:08 13.2 8.9 75 1017.4 7.6 W 7.6 0.0 0.5
21:09 13.2 8.9 75 1017.5 5.4 W 7.6 0.0 0.5
21:10 13.2 8.9 75 1017.5 7.6 W 7.6 0.0 0.5
21:11 13.2 8.9 75 1017.5 7.6 W 7.6 0.0 0.5
21:12 13.2 8.9 75 1017.5 9.8 WSW 9.8 0.0 0.5
21:13 13.2 8.9 75 1017.5 6.9 W 9.8 0.0 0.5
21:14 13.2 8.9 75 1017.4 6.9 WSW 9.8 0.0 0.5
21:15 13.2 8.9 75 1017.5 5.4 SW 9.8 0.0 0.5
21:16 13.2 8.9 75 1017.4 6.9 SW 9.8 0.0 0.5
21:17 13.2 8.9 75 1017.5 5.4 WSW 9.8 0.0 0.5
21:18 13.2 8.9 75 1017.6 6.9 SW 9.8 0.0 0.5
21:19 13.2 8.9 75 1017.6 10.7 S 10.7 0.0 0.5
21:20 13.2 8.9 75 1017.5 7.6 SW 10.7 0.0 0.5
21:21 13.2 8.9 75 1017.6 6.0 SW 10.7 0.0 0.5
21:22 13.2 8.9 75 1017.4 6.9 SW 10.7 0.0 0.5
21:23 13.2 8.9 75 1017.5 6.0 WSW 10.7 0.0 0.5
21:24 13.1 9.0 76 1017.5 7.6 SW 10.7 0.0 0.5
21:25 13.1 9.0 76 1017.7 12.1 SW 12.1 0.0 0.5
21:26 13.1 9.0 76 1017.6 6.9 W 12.1 0.0 0.5
21:27 13.1 9.0 76 1017.5 6.9 W 12.1 0.0 0.5
21:28 13.1 9.0 76 1017.6 6.0 W 12.1 0.0 0.5
21:29 13.1 9.0 76 1017.5 8.3 W 12.1 0.0 0.5
21:30 13.1 9.0 76 1017.4 6.0 W 12.1 0.0 0.5
21:31 13.0 8.9 76 1017.6 9.2 SW 12.1 0.0 0.5
21:32 13.0 8.9 76 1017.5 7.6 SW 12.1 0.0 0.5
21:33 13.0 8.9 76 1017.6 6.0 SW 12.1 0.0 0.5
21:34 13.0 8.9 76 1017.6 8.3 SW 12.1 0.0 0.5
21:35 13.0 8.9 76 1017.6 8.3 SW 12.1 0.0 0.5
21:36 12.9 8.8 76 1017.8 6.9 SW 9.2 0.0 0.5
21:37 12.9 8.8 76 1017.6 7.6 W 9.2 0.0 0.5
21:38 12.9 8.8 76 1017.6 9.2 NNE 9.2 0.0 0.5
21:41 12.8 8.7 76 1017.6 9.8 NW 9.8 0.0 0.5
21:42 12.8 8.5 75 1017.6 9.2 SW 9.8 0.0 0.5
21:43 12.8 8.7 76 1017.8 8.3 SW 9.8 0.0 0.5
21:44 12.7 8.6 76 1017.6 6.0 NW 9.8 0.0 0.5
21:45 12.7 8.6 76 1017.7 5.4 SW 9.8 0.0 0.5
21:46 12.7 8.6 76 1017.7 7.6 SW 9.8 0.0 0.5
21:47 12.6 8.5 76 1017.7 6.0 SW 9.8 0.0 0.5
21:48 12.6 8.5 76 1017.7 6.9 W 9.8 0.0 0.5
21:49 12.6 8.5 76 1017.8 6.9 SW 9.8 0.0 0.5
21:50 12.6 8.5 76 1017.6 6.0 SW 9.8 0.0 0.5
21:51 12.5 8.4 76 1017.9 7.6 SW 9.2 0.0 0.5
21:52 12.5 8.4 76 1017.7 5.4 W 9.2 0.0 0.5
21:53 12.5 8.4 76 1017.7 6.9 SW 8.3 0.0 0.5
21:54 12.5 8.4 76 1017.7 4.5 SW 8.3 0.0 0.5
21:55 12.4 8.3 76 1017.9 5.4 SW 7.6 0.0 0.5
21:56 12.4 8.3 76 1017.9 7.6 SW 7.6 0.0 0.5
21:57 12.3 8.2 76 1017.8 9.2 SW 9.2 0.0 0.5
21:58 12.4 8.3 76 1017.8 6.0 SW 9.2 0.0 0.5
21:59 12.3 8.2 76 1017.8 8.3 W 9.2 0.0 0.5
22:00 12.3 8.2 76 1017.8 8.3 SW 9.2 0.0 0.5
22:01 12.3 8.2 76 1017.9 8.3 SW 9.2 0.0 0.5
22:02 12.3 8.2 76 1018.0 8.3 SW 9.2 0.0 0.5
22:03 12.3 8.2 76 1017.9 8.3 SW 9.2 0.0 0.5
22:04 12.3 8.2 76 1017.8 8.3 SW 9.2 0.0 0.5
22:05 12.2 8.1 76 1017.8 6.9 SW 9.2 0.0 0.5
22:06 12.2 8.1 76 1017.8 6.0 SW 9.2 0.0 0.5
22:07 12.2 8.1 76 1017.9 7.6 SW 9.2 0.0 0.5
22:08 12.2 8.1 76 1017.9 7.6 SW 8.3 0.0 0.5
22:09 12.1 8.0 76 1018.0 7.6 SW 8.3 0.0 0.5
22:10 12.1 8.0 76 1017.9 6.9 SW 8.3 0.0 0.5
22:11 12.1 8.0 76 1017.9 5.4 SW 8.3 0.0 0.5
22:12 12.1 8.0 76 1017.9 6.0 SW 8.3 0.0 0.5
22:13 12.1 8.0 76 1018.0 7.6 SW 8.3 0.0 0.5
22:14 12.1 8.0 76 1018.0 4.5 W 8.3 0.0 0.5
22:15 12.1 8.0 76 1018.0 7.6 NNW 7.6 0.0 0.5
22:16 12.1 8.0 76 1017.9 9.2 SW 9.2 0.0 0.5
22:17 12.0 7.9 76 1017.9 7.6 SW 9.2 0.0 0.5
22:18 12.0 7.9 76 1018.0 6.9 SW 9.2 0.0 0.5
22:19 12.0 7.9 76 1017.9 7.6 SW 9.2 0.0 0.5
22:20 12.0 7.9 76 1018.0 10.7 SW 10.7 0.0 0.5
22:21 12.0 7.9 76 1017.9 6.0 SW 10.7 0.0 0.5
22:22 12.0 8.1 77 1017.9 4.5 SW 10.7 0.0 0.5
22:23 12.0 8.1 77 1017.9 7.6 W 10.7 0.0 0.5
22:24 12.0 8.1 77 1017.9 7.6 W 10.7 0.0 0.5
22:25 12.0 8.1 77 1017.9 6.9 SSW 10.7 0.0 0.5
22:26 12.0 8.1 77 1018.0 4.5 SW 10.7 0.0 0.5
22:27 11.9 8.0 77 1017.9 6.0 SSW 10.7 0.0 0.5
22:28 11.9 8.0 77 1018.0 7.6 S 10.7 0.0 0.5
22:29 11.9 8.0 77 1017.9 6.9 SW 10.7 0.0 0.5
22:30 11.9 8.0 77 1017.9 4.5 SW 10.7 0.0 0.5
22:31 11.9 8.0 77 1017.9 5.4 SW 7.6 0.0 0.5
22:32 11.9 8.0 77 1018.0 4.5 SW 7.6 0.0 0.5
22:33 11.9 8.0 77 1017.9 5.4 W 7.6 0.0 0.5
22:34 11.8 7.9 77 1017.9 6.9 SW 7.6 0.0 0.5
22:35 11.8 7.9 77 1017.9 6.0 SW 7.6 0.0 0.5
22:36 11.8 7.9 77 1017.9 4.5 SW 7.6 0.0 0.5
22:37 11.8 7.9 77 1017.9 6.0 WSW 7.6 0.0 0.5
22:38 11.8 7.9 77 1017.9 5.4 W 6.9 0.0 0.5
22:39 11.8 7.9 77 1017.9 6.0 SW 6.9 0.0 0.5
22:40 11.8 7.9 77 1017.9 7.6 SW 7.6 0.0 0.5
22:41 11.8 7.9 77 1017.9 7.6 SW 7.6 0.0 0.5
22:42 11.7 7.8 77 1018.0 6.9 S 7.6 0.0 0.5
22:43 11.7 7.8 77 1017.8 5.4 SW 7.6 0.0 0.5
22:44 11.7 7.8 77 1017.9 5.4 SW 7.6 0.0 0.5
22:45 11.7 7.8 77 1017.8 4.5 W 7.6 0.0 0.5
22:46 11.7 7.8 77 1017.9 3.8 SW 7.6 0.0 0.5
22:47 11.7 7.8 77 1018.0 6.0 SW 7.6 0.0 0.5
22:48 11.7 7.8 77 1017.8 3.8 SW 7.6 0.0 0.5
22:49 11.7 7.8 77 1017.9 4.5 WNW 7.6 0.0 0.5
22:50 11.7 7.8 77 1017.9 6.0 SW 7.6 0.0 0.5
22:51 11.6 7.9 78 1017.9 7.6 SW 7.6 0.0 0.5
22:52 11.6 7.9 78 1018.0 5.4 SSW 7.6 0.0 0.5
22:53 11.6 7.9 78 1017.9 4.5 W 7.6 0.0 0.5
22:54 11.6 7.9 78 1018.0 5.4 W 7.6 0.0 0.5
22:55 11.6 7.9 78 1017.8 4.5 SW 7.6 0.0 0.5
22:56 11.6 7.9 78 1017.9 4.5 SW 7.6 0.0 0.5
22:57 11.6 7.9 78 1018.0 5.4 W 7.6 0.0 0.5
22:58 11.6 7.9 78 1018.0 5.4 SW 7.6 0.0 0.5
22:59 11.6 7.9 78 1018.0 3.8 SW 7.6 0.0 0.5
23:00 11.6 7.9 78 1018.0 3.8 SW 7.6 0.0 0.5
23:01 11.6 7.9 78 1018.0 3.8 SW 7.6 0.0 0.5
23:02 11.6 7.9 78 1018.1 3.8 SW 7.6 0.0 0.5
23:03 11.6 7.9 78 1018.0 3.8 SW 5.4 0.0 0.5
23:04 11.6 7.9 78 1018.0 3.8 SW 5.4 0.0 0.5
23:05 11.6 7.9 78 1017.9 3.8 SW 5.4 0.0 0.5
23:06 11.5 7.8 78 1018.0 4.5 SSW 5.4 0.0 0.5
23:07 11.5 7.8 78 1018.0 4.5 S 5.4 0.0 0.5
23:08 11.5 7.8 78 1018.0 4.5 S 5.4 0.0 0.5
23:09 11.4 7.7 78 1018.0 3.8 S 5.4 0.0 0.5
23:10 11.4 7.7 78 1018.2 3.8 S 5.4 0.0 0.5
23:11 11.4 7.9 79 1018.1 3.8 SW 5.4 0.0 0.5
23:13 11.4 7.7 78 1018.2 5.4 S 5.4 0.0 0.5
23:14 11.4 7.9 79 1018.1 5.4 SW 5.4 0.0 0.5
23:15 11.4 7.9 79 1018.1 3.1 S 5.4 0.0 0.5
23:16 11.3 7.8 79 1018.3 3.1 S 5.4 0.0 0.5
23:17 11.3 7.8 79 1018.3 3.8 SW 5.4 0.0 0.5
23:18 11.3 7.8 79 1018.2 3.1 S 5.4 0.0 0.5
23:19 11.3 7.8 79 1018.2 3.1 SW 5.4 0.0 0.5
23:20 11.2 7.7 79 1018.0 3.1 S 5.4 0.0 0.5
23:21 11.3 7.8 79 1018.1 3.1 S 5.4 0.0 0.5
23:22 11.2 7.7 79 1018.2 2.2 S 5.4 0.0 0.5
23:23 11.2 7.7 79 1018.1 3.8 SW 5.4 0.0 0.5
23:24 11.2 7.7 79 1018.1 3.8 SW 4.5 0.0 0.5
23:25 11.2 7.7 79 1018.3 4.5 S 4.5 0.0 0.5
23:26 11.2 7.7 79 1018.4 3.1 S 4.5 0.0 0.5
23:27 11.1 7.6 79 1018.2 3.1 S 4.5 0.0 0.5
23:28 11.1 7.6 79 1018.3 3.8 S 4.5 0.0 0.5
23:29 11.1 7.6 79 1018.3 3.1 S 4.5 0.0 0.5
23:30 11.1 7.6 79 1018.2 3.8 SW 4.5 0.0 0.5
23:31 11.1 7.6 79 1018.2 3.1 S 4.5 0.0 0.5
23:32 11.1 7.6 79 1018.3 2.2 S 4.5 0.0 0.5
23:33 11.1 7.6 79 1018.3 2.2 SW 4.5 0.0 0.5
23:34 11.0 7.5 79 1018.2 3.8 SW 4.5 0.0 0.5
23:35 11.0 7.5 79 1018.2 3.1 S 4.5 0.0 0.5
23:36 11.0 7.5 79 1018.4 2.2 S 3.8 0.0 0.5
23:37 11.0 7.5 79 1018.4 2.2 SW 3.8 0.0 0.5
23:38 11.0 7.7 80 1018.4 2.2 SW 3.8 0.0 0.5
23:39 11.0 7.7 80 1018.3 1.6 SE 3.8 0.0 0.5
23:40 11.0 7.7 80 1018.3 1.6 S 3.8 0.0 0.5
23:41 11.0 7.7 80 1018.3 2.2 S 3.8 0.0 0.5
23:42 11.0 7.7 80 1018.3 1.6 S 3.8 0.0 0.5
23:43 11.0 7.7 80 1018.5 1.6 S 3.8 0.0 0.5
23:44 10.9 7.6 80 1018.5 1.6 SE 3.1 0.0 0.5
23:45 10.9 7.6 80 1018.4 0.7 SE 2.2 0.0 0.5
23:46 10.9 7.6 80 1018.3 0.0 SE 2.2 0.0 0.5
23:47 10.9 7.6 80 1018.3 0.0 S 2.2 0.0 0.5
23:48 10.9 7.6 80 1018.5 2.2 S 2.2 0.0 0.5
23:49 10.9 7.6 80 1018.3 2.2 S 2.2 0.0 0.5
23:50 10.9 7.6 80 1018.4 1.6 S 2.2 0.0 0.5
23:51 10.9 7.6 80 1018.6 1.6 S 2.2 0.0 0.5
23:52 10.9 7.6 80 1018.4 1.6 S 2.2 0.0 0.5
23:53 10.9 7.6 80 1018.3 1.6 S 2.2 0.0 0.5
23:54 10.9 7.6 80 1018.5 2.2 SE 2.2 0.0 0.5
23:55 10.9 7.6 80 1018.5 1.6 S 2.2 0.0 0.5
23:56 10.9 7.6 80 1018.5 0.0 SSE 2.2 0.0 0.5
23:57 10.9 7.6 80 1018.4 1.6 SE 2.2 0.0 0.5
23:58 10.9 7.6 80 1018.5 2.2 S 2.2 0.0 0.5
23:59 10.9 7.6 80 1018.4 1.6 S 2.2 0.0 0.5

UK - WEATHER STATION TOPSITES - UK World Weather Websites

This is a private weather station, never base important decisions or events on data from this weather station. Although every effort has been made to make the data as accurate as possible it does not meet MetOffice standards. It is proved as a guide of local weather conditions. We accept no liability for any loss which may arise from use of the data.

Copyright © Carnkie Weather 2009 - 2019.